FW4143 Weather Reports


time (UTC)temp
C
wind
direction
speed
KPH
gust
KPH
rain 1hr
cm
rain 24hr
cm
rain mn
cm
humidity
%
barometer
mb
20220813143824 30 169 4.8 12.9 0.00 0.00 0.00 65 1016.5
20220813143724 30 166 4.8 12.9 0.00 0.00 0.00 65 1016.5
20220813143624 30 165 4.8 12.9 0.00 0.00 0.00 65 1016.5
20220813143525 30 165 4.8 12.9 0.00 0.00 0.00 65 1016.5
20220813143403 30 163 4.8 9.7 0.00 0.00 0.00 66 1016.5
20220813143305 30 162 4.8 9.7 0.00 0.00 0.00 66 1016.5
20220813143203 30 166 4.8 12.9 0.00 0.00 0.00 66 1016.5
20220813143104 30 170 4.8 12.9 0.00 0.00 0.00 67 1016.5
20220813143003 30 169 6.4 12.9 0.00 0.00 0.00 67 1016.6
20220813142903 30 165 6.4 12.9 0.00 0.00 0.00 67 1016.5
20220813142803 30 162 6.4 12.9 0.00 0.00 0.00 67 1016.6
20220813142704 30 164 6.4 12.9 0.00 0.00 0.00 67 1016.6
20220813142604 30 163 6.4 12.9 0.00 0.00 0.00 67 1016.5
20220813142504 30 160 6.4 12.9 0.00 0.00 0.00 67 1016.5
20220813142424 30 156 6.4 12.9 0.00 0.00 0.00 67 1016.5
20220813142324 30 154 6.4 12.9 0.00 0.00 0.00 67 1016.5
20220813142245 30 155 6.4 12.9 0.00 0.00 0.00 67 1016.5
20220813142145 30 150 4.8 12.9 0.00 0.00 0.00 68 1016.5
20220813142004 30 153 4.8 12.9 0.00 0.00 0.00 68 1016.5
20220813141903 30 158 4.8 12.9 0.00 0.00 0.00 68 1016.5
20220813141845 30 162 4.8 11.3 0.00 0.00 0.00 68 1016.5
20220813141745 30 169 4.8 11.3 0.00 0.00 0.00 68 1016.5
20220813141604 30 175 6.4 11.3 0.00 0.00 0.00 68 1016.5
20220813141504 30 177 4.8 11.3 0.00 0.00 0.00 68 1016.6
20220813141403 30 176 4.8 11.3 0.00 0.00 0.00 69 1016.5
20220813141305 29 178 4.8 11.3 0.00 0.00 0.00 69 1016.5
20220813141204 29 174 4.8 11.3 0.00 0.00 0.00 69 1016.5
20220813141105 29 174 4.8 11.3 0.00 0.00 0.00 69 1016.5
20220813141045 29 175 4.8 11.3 0.00 0.00 0.00 69 1016.6
20220813140903 30 164 4.8 11.3 0.00 0.00 0.00 69 1016.5
20220813140804 30 153 3.2 11.3 0.00 0.00 0.00 69 1016.5
20220813140705 29 148 3.2 11.3 0.00 0.00 0.00 69 1016.5
20220813140603 29 148 3.2 11.3 0.00 0.00 0.00 69 1016.5
20220813140503 29 149 4.8 11.3 0.00 0.00 0.00 70 1016.5
20220813140403 29 153 4.8 11.3 0.00 0.00 0.00 70 1016.5
20220813140304 29 155 3.2 11.3 0.00 0.00 0.00 70 1016.5
20220813140203 29 156 3.2 11.3 0.00 0.00 0.00 70 1016.5
20220813140103 29 158 4.8 11.3 0.00 0.00 0.00 70 1016.5
20220813140003 29 161 4.8 11.3 0.00 0.00 0.00 70 1016.5
20220813135904 29 163 4.8 11.3 0.00 0.00 0.00 70 1016.5
20220813135803 29 162 4.8 11.3 0.00 0.00 0.00 70 1016.5
20220813135703 29 161 4.8 11.3 0.00 0.00 0.00 70 1016.5
20220813135603 29 159 4.8 11.3 0.00 0.00 0.00 70 1016.5
20220813135505 29 156 3.2 11.3 0.00 0.00 0.00 70 1016.4
20220813135424 29 153 4.8 11.3 0.00 0.00 0.00 71 1016.4
20220813135324 28 154 4.8 11.3 0.00 0.00 0.00 71 1016.4
20220813135245 28 155 4.8 11.3 0.00 0.00 0.00 71 1016.4
20220813135146 28 155 4.8 11.3 0.00 0.00 0.00 71 1016.4
20220813135003 28 150 4.8 11.3 0.00 0.00 0.00 71 1016.4
20220813134904 28 150 4.8 9.7 0.00 0.00 0.00 72 1016.4
20220813134803 28 150 4.8 9.7 0.00 0.00 0.00 72 1016.4
20220813134703 28 152 4.8 9.7 0.00 0.00 0.00 72 1016.4
20220813134603 28 152 4.8 11.3 0.00 0.00 0.00 72 1016.4
20220813134503 28 153 4.8 11.3 0.00 0.00 0.00 72 1016.4
20220813134403 28 153 4.8 11.3 0.00 0.00 0.00 72 1016.4
20220813134305 28 152 4.8 11.3 0.00 0.00 0.00 72 1016.4
20220813134246 28 152 4.8 11.3 0.00 0.00 0.00 73 1016.4
20220813134146 28 151 4.8 11.3 0.00 0.00 0.00 73 1016.3
20220813134003 28 150 4.8 11.3 0.00 0.00 0.00 73 1016.4
20220813133905 28 147 4.8 11.3 0.00 0.00 0.00 72 1016.4
20220813133825 28 146 4.8 11.3 0.00 0.00 0.00 72 1016.4
20220813133725 28 144 3.2 11.3 0.00 0.00 0.00 73 1016.4
20220813133604 28 141 3.2 8.0 0.00 0.00 0.00 73 1016.4
20220813133503 28 138 3.2 8.0 0.00 0.00 0.00 73 1016.4
20220813133445 28 137 3.2 8.0 0.00 0.00 0.00 73 1016.4
20220813133346 28 132 3.2 8.0 0.00 0.00 0.00 73 1016.3
20220813133203 28 128 3.2 6.4 0.00 0.00 0.00 73 1016.3
20220813133105 28 132 3.2 6.4 0.00 0.00 0.00 74 1016.3
20220813133003 28 142 3.2 8.0 0.00 0.00 0.00 74 1016.3
20220813132904 28 144 3.2 8.0 0.00 0.00 0.00 74 1016.3
20220813132825 28 145 1.6 8.0 0.00 0.00 0.00 75 1016.3
20220813132724 28 146 3.2 8.0 0.00 0.00 0.00 75 1016.3
20220813132625 28 144 3.2 8.0 0.00 0.00 0.00 75 1016.3
20220813132503 28 145 3.2 8.0 0.00 0.00 0.00 75 1016.2
20220813132404 28 148 1.6 8.0 0.00 0.00 0.00 76 1016.2
20220813132305 27 148 1.6 8.0 0.00 0.00 0.00 76 1016.3
20220813132203 27 146 1.6 8.0 0.00 0.00 0.00 76 1016.2
20220813132104 27 141 1.6 8.0 0.00 0.00 0.00 77 1016.2
20220813132003 27 127 1.6 6.4 0.00 0.00 0.00 77 1016.2
20220813131903 27 127 1.6 6.4 0.00 0.00 0.00 78 1016.2
20220813131805 27 127 1.6 6.4 0.00 0.00 0.00 78 1016.2
20220813131703 27 127 1.6 6.4 0.00 0.00 0.00 78 1016.2
20220813131604 27 127 1.6 4.8 0.00 0.00 0.00 79 1016.2
20220813131524 27 127 1.6 4.8 0.00 0.00 0.00 79 1016.1
20220813131424 27 127 1.6 4.8 0.00 0.00 0.00 79 1016.2
20220813131324 27 130 1.6 4.8 0.00 0.00 0.00 79 1016.2
20220813131226 27 130 1.6 4.8 0.00 0.00 0.00 80 1016.2
20220813131124 27 127 1.6 4.8 0.00 0.00 0.00 80 1016.2
20220813131025 27 121 1.6 4.8 0.00 0.00 0.00 80 1016.2
20220813130925 27 113 1.6 4.8 0.00 0.00 0.00 80 1016.2
20220813130826 27 318 1.6 4.8 0.00 0.00 0.00 81 1016.1
20220813130703 27 316 1.6 4.8 0.00 0.00 0.00 81 1016.1
20220813130603 26 316 1.6 4.8 0.00 0.00 0.00 81 1016.1
20220813130504 26 315 1.6 4.8 0.00 0.00 0.00 81 1016.1
20220813130403 26 314 1.6 4.8 0.00 0.00 0.00 81 1016.2
20220813130324 26 316 1.6 4.8 0.00 0.00 0.00 81 1016.1
20220813130226 26 316 1.6 4.8 0.00 0.00 0.00 82 1016.2
20220813130103 26 316 1.6 4.8 0.00 0.00 0.00 82 1016.2
20220813130003 26 317 1.6 4.8 0.00 0.00 0.00 82 1016.1
20220813125946 26 317 1.6 4.8 0.00 0.00 0.00 82 1016.1
20220813125846 26 317 1.6 4.8 0.00 0.00 0.00 82 1016.1
20220813125703 26 318 1.6 4.8 0.00 0.00 0.00 82 1016.2
20220813125603 26 318 1.6 4.8 0.00 0.00 0.00 83 1016.2
20220813125524 26 318 1.6 4.8 0.00 0.00 0.00 83 1016.2
20220813125425 26 318 1.6 4.8 0.00 0.00 0.00 83 1016.2
20220813125325 26 318 1.6 4.8 0.00 0.00 0.00 83 1016.2
20220813125224 26 319 1.6 4.8 0.00 0.00 0.00 83 1016.1
20220813125103 26 319 1.6 4.8 0.00 0.00 0.00 83 1016.1
20220813125005 26 319 1.6 3.2 0.00 0.00 0.00 83 1016.1
20220813124903 26 319 1.6 3.2 0.00 0.00 0.00 84 1016.2
20220813124803 26 319 1.6 3.2 0.00 0.00 0.00 84 1016.1
20220813124704 26 319 1.6 3.2 0.00 0.00 0.00 84 1016.1
20220813124605 26 319 1.6 3.2 0.00 0.00 0.00 84 1016.2
20220813124546 26 319 1.6 3.2 0.00 0.00 0.00 84 1016.2
20220813124447 26 319 1.6 3.2 0.00 0.00 0.00 84 1016.2
20220813124324 25 319 1.6 3.2 0.00 0.00 0.00 84 1016.2
20220813124224 25 319 1.6 3.2 0.00 0.00 0.00 85 1016.1
20220813124145 25 319 1.6 3.2 0.00 0.00 0.00 85 1016.2
20220813124047 25 319 1.6 3.2 0.00 0.00 0.00 84 1016.2
20220813123904 25 319 1.6 3.2 0.00 0.00 0.00 85 1016.2
20220813123804 25 319 1.6 3.2 0.00 0.00 0.00 85 1016.2
20220813123703 25 319 1.6 3.2 0.00 0.00 0.00 85 1016.2
20220813123603 25 319 1.6 3.2 0.00 0.00 0.00 85 1016.2
20220813123525 25 319 1.6 3.2 0.00 0.00 0.00 85 1016.2
20220813123425 25 319 1.6 3.2 0.00 0.00 0.00 85 1016.2
20220813123303 25 319 1.6 3.2 0.00 0.00 0.00 85 1016.2
20220813123203 25 319 1.6 3.2 0.00 0.00 0.00 85 1016.2
20220813123124 25 319 0.0 3.2 0.00 0.00 0.00 85 1016.1
20220813123026 25 319 0.0 3.2 0.00 0.00 0.00 85 1016.1
20220813122946 25 319 0.0 3.2 0.00 0.00 0.00 85 1016.1
20220813122847 25 319 1.6 3.2 0.00 0.00 0.00 85 1016.1
20220813122745 25 319 0.0 3.2 0.00 0.00 0.00 85 1016.1
20220813122647 25 319 0.0 3.2 0.00 0.00 0.00 86 1016.1
20220813122503 25 319 1.6 3.2 0.00 0.00 0.00 86 1016.1
20220813122405 25 319 1.6 3.2 0.00 0.00 0.00 86 1016.1
20220813122304 25 319 0.0 4.8 0.00 0.00 0.00 86 1016.1
20220813122205 25 319 1.6 4.8 0.00 0.00 0.00 86 1016.1
20220813122124 25 319 1.6 4.8 0.00 0.00 0.00 86 1016.1
20220813122024 25 319 1.6 4.8 0.00 0.00 0.00 86 1016.1
20220813121924 25 319 1.6 4.8 0.00 0.00 0.00 86 1016.1
20220813121824 25 319 1.6 4.8 0.00 0.00 0.00 86 1016.1
20220813121724 25 319 1.6 4.8 0.00 0.00 0.00 86 1016.1
20220813121625 25 319 1.6 4.8 0.00 0.00 0.00 86 1016.0
20220813121545 25 319 1.6 4.8 0.00 0.00 0.00 86 1016.0
20220813121446 25 319 1.6 4.8 0.00 0.00 0.00 86 1016.0
20220813121324 25 319 1.6 3.2 0.00 0.00 0.00 86 1016.0
20220813121224 25 319 1.6 3.2 0.00 0.00 0.00 86 1016.0
20220813121103 25 319 1.6 3.2 0.00 0.00 0.00 86 1016.0
20220813121004 25 319 0.0 3.2 0.00 0.00 0.00 87 1016.0
20220813120924 25 319 0.0 3.2 0.00 0.00 0.00 87 1016.0
20220813120824 25 319 0.0 3.2 0.00 0.00 0.00 87 1016.0
20220813120703 25 319 0.0 1.6 0.00 0.00 0.00 87 1016.0
20220813120603 25 319 0.0 1.6 0.00 0.00 0.00 87 1016.0
20220813120504 25 319 0.0 1.6 0.00 0.00 0.00 87 1016.0
20220813120445 25 319 0.0 1.6 0.00 0.00 0.00 87 1016.0
20220813120324 25 319 0.0 1.6 0.00 0.00 0.00 87 1015.9
20220813120224 25 319 0.0 1.6 0.00 0.00 0.00 87 1015.9
20220813120104 25 319 0.0 1.6 0.00 0.00 0.00 87 1015.9
20220813120003 25 319 0.0 1.6 0.00 0.00 0.00 87 1015.9
20220813115945 25 319 0.0 1.6 0.00 0.00 0.00 87 1015.8
20220813115847 25 319 0.0 1.6 0.00 0.00 0.00 87 1015.8
20220813115745 25 319 0.0 1.6 0.00 0.00 0.00 87 1015.9
20220813115645 25 319 0.0 1.6 0.00 0.00 0.00 87 1015.9
20220813115545 25 319 0.0 1.6 0.00 0.00 0.00 87 1015.9
20220813115446 25 319 0.0 1.6 0.00 0.00 0.00 87 1015.8
20220813115305 25 0 0.0 0.0 0.00 0.00 0.00 87 1015.8
20220813115203 25 0 0.0 0.0 0.00 0.00 0.00 87 1015.9
20220813115104 25 0 0.0 0.0 0.00 0.00 0.00 87 1015.9
20220813115004 25 0 0.0 0.0 0.00 0.00 0.00 87 1015.9
20220813114903 25 0 0.0 0.0 0.00 0.00 0.00 87 1015.9
20220813114824 25 0 0.0 0.0 0.00 0.00 0.00 87 1015.8
20220813114724 25 0 0.0 0.0 0.00 0.00 0.00 87 1015.9
20220813114624 25 0 0.0 0.0 0.00 0.00 0.00 87 1015.9
20220813114525 24 0 0.0 0.0 0.00 0.00 0.00 87 1015.9
20220813114424 24 0 0.0 0.0 0.00 0.00 0.00 87 1015.9
20220813114326 24 0 0.0 0.0 0.00 0.00 0.00 87 1015.9
20220813114203 25 0 0.0 0.0 0.00 0.00 0.00 87 1015.9
20220813114103 25 0 0.0 0.0 0.00 0.00 0.00 87 1015.9
20220813114003 25 0 0.0 0.0 0.00 0.00 0.00 87 1015.9
20220813113905 25 0 0.0 0.0 0.00 0.00 0.00 87 1015.9
20220813113825 25 0 0.0 0.0 0.00 0.00 0.00 87 1015.9
20220813113726 25 0 0.0 0.0 0.00 0.00 0.00 87 1015.9
20220813113603 25 0 0.0 0.0 0.00 0.00 0.00 87 1015.9
20220813113503 25 0 0.0 0.0 0.00 0.00 0.00 87 1015.9
20220813113424 25 0 0.0 0.0 0.00 0.00 0.00 87 1015.9
20220813113324 25 0 0.0 0.0 0.00 0.00 0.00 87 1015.9
20220813113246 25 0 0.0 0.0 0.00 0.00 0.00 87 1015.9
20220813113146 25 0 0.0 0.0 0.00 0.00 0.00 87 1015.9
20220813113003 25 0 0.0 0.0 0.00 0.00 0.00 87 1015.9
20220813112903 25 0 0.0 0.0 0.00 0.00 0.00 86 1015.9
20220813112803 25 0 0.0 0.0 0.00 0.00 0.00 86 1015.9
20220813112705 25 0 0.0 0.0 0.00 0.00 0.00 86 1015.9
20220813112604 25 0 0.0 0.0 0.00 0.00 0.00 86 1015.9
20220813112503 25 0 0.0 0.0 0.00 0.00 0.00 86 1015.9
20220813112424 25 0 0.0 0.0 0.00 0.00 0.00 86 1015.8
20220813112324 25 0 0.0 0.0 0.00 0.00 0.00 86 1015.8
20220813112246 25 0 0.0 0.0 0.00 0.00 0.00 86 1015.8
20220813112146 25 0 0.0 0.0 0.00 0.00 0.00 86 1015.9
20220813112024 25 0 0.0 0.0 0.00 0.00 0.00 86 1015.7
20220813111924 25 0 0.0 0.0 0.00 0.00 0.00 86 1015.8
20220813111845 25 0 0.0 0.0 0.00 0.00 0.00 86 1015.8
20220813111747 25 0 0.0 0.0 0.00 0.00 0.00 86 1015.8
20220813111603 25 0 0.0 0.0 0.00 0.00 0.00 86 1015.7
20220813111503 25 0 0.0 0.0 0.00 0.00 0.00 86 1015.7
20220813111403 25 0 0.0 0.0 0.00 0.00 0.00 86 1015.7
20220813111303 25 0 0.0 0.0 0.00 0.00 0.00 86 1015.7
20220813111204 25 0 0.0 0.0 0.00 0.00 0.00 86 1015.7
20220813111103 25 0 0.0 0.0 0.00 0.00 0.00 86 1015.7
20220813111025 25 0 0.0 0.0 0.00 0.00 0.00 86 1015.7
20220813110905 25 0 0.0 0.0 0.00 0.00 0.00 86 1015.6
20220813110824 25 0 0.0 0.0 0.00 0.00 0.00 86 1015.7
20220813110726 25 0 0.0 0.0 0.00 0.00 0.00 86 1015.6
20220813110603 25 0 0.0 0.0 0.00 0.00 0.00 86 1015.7
20220813110504 25 0 0.0 0.0 0.00 0.00 0.00 86 1015.6
20220813110445 25 0 0.0 0.0 0.00 0.00 0.00 86 1015.6
20220813110345 25 0 0.0 0.0 0.00 0.00 0.00 86 1015.6
20220813110246 25 0 0.0 0.0 0.00 0.00 0.00 86 1015.6
20220813110145 25 0 0.0 0.0 0.00 0.00 0.00 86 1015.6
20220813110003 25 0 0.0 0.0 0.00 0.00 0.00 86 1015.6
20220813105904 25 0 0.0 0.0 0.00 0.00 0.00 86 1015.7
20220813105825 25 0 0.0 0.0 0.00 0.00 0.00 86 1015.6
20220813105724 25 0 0.0 0.0 0.00 0.00 0.00 86 1015.7
20220813105603 25 0 0.0 0.0 0.00 0.00 0.00 86 1015.6
20220813105503 25 0 0.0 0.0 0.00 0.00 0.00 86 1015.6
20220813105425 25 0 0.0 0.0 0.00 0.00 0.00 86 1015.6
20220813105324 25 0 0.0 0.0 0.00 0.00 0.00 86 1015.6
20220813105224 25 0 0.0 0.0 0.00 0.00 0.00 86 1015.6
20220813105124 25 0 0.0 0.0 0.00 0.00 0.00 86 1015.6
20220813105045 25 0 0.0 0.0 0.00 0.00 0.00 86 1015.6
20220813104947 25 0 0.0 0.0 0.00 0.00 0.00 86 1015.6
20220813104845 25 0 0.0 0.0 0.00 0.00 0.00 86 1015.6
20220813104745 25 0 0.0 0.0 0.00 0.00 0.00 86 1015.6
20220813104603 25 0 0.0 0.0 0.00 0.00 0.00 86 1015.6
20220813104505 25 0 0.0 0.0 0.00 0.00 0.00 86 1015.6
20220813104403 25 0 0.0 0.0 0.00 0.00 0.00 86 1015.6
20220813104305 25 0 0.0 0.0 0.00 0.00 0.00 86 1015.6
20220813104204 25 0 0.0 0.0 0.00 0.00 0.00 86 1015.7
20220813104104 25 0 0.0 0.0 0.00 0.00 0.00 86 1015.7
20220813104003 25 0 0.0 0.0 0.00 0.00 0.00 86 1015.6
20220813103903 25 0 0.0 0.0 0.00 0.00 0.00 86 1015.6
20220813103803 25 0 0.0 0.0 0.00 0.00 0.00 86 1015.6
20220813103703 25 0 0.0 0.0 0.00 0.00 0.00 86 1015.6
20220813103646 25 0 0.0 0.0 0.00 0.00 0.00 86 1015.6
20220813103547 25 0 0.0 0.0 0.00 0.00 0.00 86 1015.6
20220813103403 25 0 0.0 0.0 0.00 0.00 0.00 86 1015.6
20220813103303 25 0 0.0 0.0 0.00 0.00 0.00 86 1015.6
20220813103224 25 0 0.0 0.0 0.00 0.00 0.00 86 1015.6
20220813103126 25 0 0.0 0.0 0.00 0.00 0.00 86 1015.6
20220813103024 25 0 0.0 0.0 0.00 0.00 0.00 86 1015.6
20220813102925 25 0 0.0 0.0 0.00 0.00 0.00 86 1015.6
20220813102803 25 0 0.0 0.0 0.00 0.00 0.00 86 1015.6
20220813102705 25 0 0.0 0.0 0.00 0.00 0.00 86 1015.7
20220813102624 25 0 0.0 0.0 0.00 0.00 0.00 86 1015.6
20220813102525 25 0 0.0 0.0 0.00 0.00 0.00 86 1015.6
20220813102403 25 0 0.0 0.0 0.00 0.00 0.00 86 1015.6
20220813102304 25 0 0.0 0.0 0.00 0.00 0.00 86 1015.6
20220813102224 25 0 0.0 0.0 0.00 0.00 0.00 86 1015.7
20220813102125 25 0 0.0 0.0 0.00 0.00 0.00 85 1015.6
20220813102024 25 0 0.0 0.0 0.00 0.00 0.00 85 1015.6
20220813101924 25 0 0.0 0.0 0.00 0.00 0.00 85 1015.6
20220813101803 25 0 0.0 0.0 0.00 0.00 0.00 85 1015.6
20220813101705 25 0 0.0 0.0 0.00 0.00 0.00 85 1015.6
20220813101603 25 0 0.0 0.0 0.00 0.00 0.00 85 1015.6
20220813101503 25 0 0.0 0.0 0.00 0.00 0.00 85 1015.6
20220813101445 25 0 0.0 0.0 0.00 0.00 0.00 85 1015.6
20220813101345 25 0 0.0 0.0 0.00 0.00 0.00 85 1015.6
20220813101224 25 0 0.0 0.0 0.00 0.00 0.00 85 1015.7
20220813101124 25 0 0.0 0.0 0.00 0.00 0.00 85 1015.6
20220813101004 25 0 0.0 0.0 0.00 0.00 0.00 85 1015.6
20220813100924 25 0 0.0 0.0 0.00 0.00 0.00 85 1015.6
20220813100824 25 0 0.0 1.6 0.00 0.00 0.00 84 1015.6
20220813100724 25 0 0.0 1.6 0.00 0.00 0.00 84 1015.6
20220813100624 25 0 0.0 1.6 0.00 0.00 0.00 84 1015.6
20220813100526 25 0 0.0 1.6 0.00 0.00 0.00 84 1015.6
20220813100424 25 0 0.0 1.6 0.00 0.00 0.00 84 1015.6
20220813100325 25 0 0.0 1.6 0.00 0.00 0.00 84 1015.7
20220813100245 25 0 0.0 1.6 0.00 0.00 0.00 84 1015.6
20220813100145 25 0 0.0 1.6 0.00 0.00 0.00 84 1015.6
20220813100003 25 0 0.0 1.6 0.00 0.00 0.00 84 1015.7
20220813095903 25 0 0.0 0.0 0.00 0.00 0.00 84 1015.6
20220813095803 25 0 0.0 0.0 0.00 0.00 0.00 84 1015.7
20220813095703 25 0 0.0 0.0 0.00 0.00 0.00 84 1015.7
20220813095624 25 0 0.0 0.0 0.00 0.00 0.00 84 1015.7
20220813095526 25 0 0.0 0.0 0.00 0.00 0.00 84 1015.7
20220813095403 25 0 0.0 0.0 0.00 0.00 0.00 84 1015.7
20220813095305 25 0 0.0 0.0 0.00 0.00 0.00 84 1015.7
20220813095203 25 0 0.0 0.0 0.00 0.00 0.00 84 1015.7
20220813095103 25 0 0.0 0.0 0.00 0.00 0.00 84 1015.6
20220813095003 25 0 0.0 0.0 0.00 0.00 0.00 84 1015.6
20220813094903 25 0 0.0 0.0 0.00 0.00 0.00 84 1015.6
20220813094803 25 0 0.0 0.0 0.00 0.00 0.00 84 1015.5
20220813094705 25 0 0.0 0.0 0.00 0.00 0.00 84 1015.6
20220813094603 25 0 0.0 0.0 0.00 0.00 0.00 84 1015.5
20220813094503 25 0 0.0 0.0 0.00 0.00 0.00 84 1015.5
20220813094424 25 0 0.0 0.0 0.00 0.00 0.00 84 1015.5
20220813094324 25 0 0.0 0.0 0.00 0.00 0.00 84 1015.5
20220813094203 25 0 0.0 0.0 0.00 0.00 0.00 83 1015.5
20220813094104 25 0 0.0 0.0 0.00 0.00 0.00 83 1015.4
20220813094045 25 0 0.0 0.0 0.00 0.00 0.00 83 1015.4
20220813093947 25 0 0.0 0.0 0.00 0.00 0.00 83 1015.4
20220813093845 25 0 0.0 0.0 0.00 0.00 0.00 83 1015.5
20220813093747 25 0 0.0 0.0 0.00 0.00 0.00 83 1015.5
20220813093603 25 0 0.0 0.0 0.00 0.00 0.00 83 1015.5
20220813093503 25 0 0.0 0.0 0.00 0.00 0.00 83 1015.5
20220813093403 25 0 0.0 0.0 0.00 0.00 0.00 83 1015.5
20220813093303 26 0 0.0 0.0 0.00 0.00 0.00 83 1015.5
20220813093245 26 0 0.0 0.0 0.00 0.00 0.00 83 1015.5
20220813093146 25 0 0.0 0.0 0.00 0.00 0.00 83 1015.5
20220813093003 25 0 0.0 0.0 0.00 0.00 0.00 83 1015.5
20220813092903 25 0 0.0 0.0 0.00 0.00 0.00 83 1015.5
20220813092824 25 0 0.0 0.0 0.00 0.00 0.00 83 1015.5
20220813092726 25 0 0.0 0.0 0.00 0.00 0.00 83 1015.5
20220813092624 25 0 0.0 0.0 0.00 0.00 0.00 83 1015.5
20220813092526 25 0 0.0 0.0 0.00 0.00 0.00 83 1015.5
20220813092403 25 0 0.0 0.0 0.00 0.00 0.00 83 1015.5
20220813092305 25 0 0.0 0.0 0.00 0.00 0.00 83 1015.5
20220813092245 25 0 0.0 0.0 0.00 0.00 0.00 83 1015.5
20220813092147 25 0 0.0 0.0 0.00 0.00 0.00 83 1015.5
20220813092003 25 0 0.0 0.0 0.00 0.00 0.00 83 1015.5
20220813091903 25 0 0.0 0.0 0.00 0.00 0.00 82 1015.5
20220813091846 25 0 0.0 0.0 0.00 0.00 0.00 82 1015.5
20220813091745 25 0 0.0 0.0 0.00 0.00 0.00 82 1015.5
20220813091603 26 0 0.0 0.0 0.00 0.00 0.00 82 1015.4
20220813091505 26 0 0.0 0.0 0.00 0.00 0.00 82 1015.4
20220813091403 26 0 0.0 0.0 0.00 0.00 0.00 82 1015.4
20220813091303 26 0 0.0 0.0 0.00 0.00 0.00 81 1015.4
20220813091203 26 0 0.0 0.0 0.00 0.00 0.00 81 1015.4
20220813091103 26 0 0.0 0.0 0.00 0.00 0.00 81 1015.4
20220813091003 26 0 0.0 0.0 0.00 0.00 0.00 82 1015.4
20220813090924 26 0 0.0 0.0 0.00 0.00 0.00 82 1015.4
20220813090824 26 0 0.0 0.0 0.00 0.00 0.00 82 1015.4
20220813090725 26 0 0.0 0.0 0.00 0.00 0.00 82 1015.4
20220813090624 26 0 0.0 0.0 0.00 0.00 0.00 82 1015.4
20220813090524 26 0 0.0 0.0 0.00 0.00 0.00 81 1015.4
20220813090424 26 0 0.0 0.0 0.00 0.00 0.00 81 1015.4
20220813090326 26 0 0.0 0.0 0.00 0.00 0.00 81 1015.4
20220813090224 26 0 0.0 0.0 0.00 0.00 0.00 81 1015.4
20220813090124 26 0 0.0 0.0 0.00 0.00 0.00 81 1015.3
20220813090045 26 0 0.0 0.0 0.00 0.00 0.00 81 1015.3
20220813085945 26 0 0.0 0.0 0.00 0.00 0.00 81 1015.3
20220813085824 26 0 0.0 0.0 0.00 0.00 0.00 81 1015.4
20220813085725 26 0 0.0 0.0 0.00 0.00 0.00 81 1015.4
20220813085645 26 0 0.0 0.0 0.00 0.00 0.00 81 1015.4
20220813085546 26 0 0.0 0.0 0.00 0.00 0.00 81 1015.3
20220813085424 26 0 0.0 0.0 0.00 0.00 0.00 81 1015.3
20220813085324 26 0 0.0 0.0 0.00 0.00 0.00 81 1015.3
20220813085203 26 0 0.0 0.0 0.00 0.00 0.00 81 1015.3
20220813085105 26 0 0.0 0.0 0.00 0.00 0.00 81 1015.3
20220813085003 26 0 0.0 0.0 0.00 0.00 0.00 82 1015.3
20220813084903 26 0 0.0 0.0 0.00 0.00 0.00 82 1015.3
20220813084824 26 0 0.0 0.0 0.00 0.00 0.00 82 1015.3
20220813084724 26 0 0.0 0.0 0.00 0.00 0.00 82 1015.3
20220813084603 26 0 0.0 0.0 0.00 0.00 0.00 82 1015.3
20220813084504 26 0 0.0 0.0 0.00 0.00 0.00 82 1015.2
20220813084403 26 0 0.0 0.0 0.00 0.00 0.00 82 1015.3
20220813084303 26 0 0.0 0.0 0.00 0.00 0.00 82 1015.3
20220813084203 26 0 0.0 0.0 0.00 0.00 0.00 82 1015.2
20220813084103 26 0 0.0 0.0 0.00 0.00 0.00 82 1015.3
20220813084003 26 0 0.0 0.0 0.00 0.00 0.00 82 1015.3
20220813083903 26 0 0.0 0.0 0.00 0.00 0.00 82 1015.3
20220813083824 26 0 0.0 0.0 0.00 0.00 0.00 82 1015.3
20220813083726 26 0 0.0 0.0 0.00 0.00 0.00 82 1015.2
20220813083603 26 0 0.0 0.0 0.00 0.00 0.00 82 1015.2
20220813083504 26 0 0.0 0.0 0.00 0.00 0.00 82 1015.2
20220813083424 26 0 0.0 0.0 0.00 0.00 0.00 82 1015.2
20220813083324 26 0 0.0 0.0 0.00 0.00 0.00 82 1015.2
20220813083203 26 0 0.0 0.0 0.00 0.00 0.00 82 1015.2
20220813083103 26 0 0.0 0.0 0.00 0.00 0.00 82 1015.2
20220813083003 26 0 0.0 0.0 0.00 0.00 0.00 82 1015.2
20220813082905 26 0 0.0 0.0 0.00 0.00 0.00 82 1015.2
20220813082803 26 0 0.0 0.0 0.00 0.00 0.00 82 1015.2
20220813082703 26 0 0.0 0.0 0.00 0.00 0.00 82 1015.2
20220813082645 26 0 0.0 0.0 0.00 0.00 0.00 82 1015.2
20220813082545 26 0 0.0 0.0 0.00 0.00 0.00 82 1015.2
20220813082403 26 0 0.0 0.0 0.00 0.00 0.00 82 1015.2
20220813082304 26 0 0.0 0.0 0.00 0.00 0.00 82 1015.2
20220813082203 26 0 0.0 0.0 0.00 0.00 0.00 82 1015.2
20220813082105 26 0 0.0 0.0 0.00 0.00 0.00 82 1015.3
20220813082024 26 0 0.0 0.0 0.00 0.00 0.00 82 1015.2
20220813081924 26 0 0.0 0.0 0.00 0.00 0.00 82 1015.2
20220813081846 26 0 0.0 0.0 0.00 0.00 0.00 82 1015.2
20220813081746 26 0 0.0 0.0 0.00 0.00 0.00 82 1015.3
20220813081624 26 0 0.0 0.0 0.00 0.00 0.00 82 1015.3
20220813081524 26 0 0.0 0.0 0.00 0.00 0.00 82 1015.3
20220813081403 26 0 0.0 0.0 0.00 0.00 0.00 82 1015.3
20220813081303 26 0 0.0 0.0 0.00 0.00 0.00 82 1015.3
20220813081224 26 0 0.0 0.0 0.00 0.00 0.00 82 1015.3
20220813081126 26 0 0.0 0.0 0.00 0.00 0.00 82 1015.3
20220813081003 26 0 0.0 0.0 0.00 0.00 0.00 82 1015.2
20220813080903 26 0 0.0 0.0 0.00 0.00 0.00 82 1015.2
20220813080803 26 0 0.0 0.0 0.00 0.00 0.00 82 1015.2
20220813080703 26 0 0.0 0.0 0.00 0.00 0.00 82 1015.2
20220813080603 26 0 0.0 0.0 0.00 0.00 0.00 82 1015.3
20220813080505 26 0 0.0 0.0 0.00 0.00 0.00 82 1015.2
20220813080403 26 0 0.0 0.0 0.00 0.00 0.00 82 1015.3
20220813080303 26 0 0.0 0.0 0.00 0.00 0.00 82 1015.2
20220813080203 26 0 0.0 0.0 0.00 0.00 0.00 82 1015.3
20220813080103 26 0 0.0 0.0 0.00 0.00 0.00 82 1015.3
20220813080003 26 0 0.0 0.0 0.00 0.00 0.00 82 1015.3
20220813075905 26 0 0.0 0.0 0.00 0.00 0.00 82 1015.3
20220813075824 26 0 0.0 0.0 0.00 0.00 0.00 82 1015.3
20220813075726 26 0 0.0 0.0 0.00 0.00 0.00 82 1015.3
20220813075603 26 0 0.0 0.0 0.00 0.00 0.00 82 1015.3
20220813075503 26 0 0.0 0.0 0.00 0.00 0.00 82 1015.3
20220813075403 26 0 0.0 0.0 0.00 0.00 0.00 82 1015.3
20220813075305 26 0 0.0 0.0 0.00 0.00 0.00 82 1015.3
20220813075203 26 0 0.0 0.0 0.00 0.00 0.00 82 1015.3
20220813075103 26 0 0.0 0.0 0.00 0.00 0.00 81 1015.3
20220813075024 26 0 0.0 0.0 0.00 0.00 0.00 81 1015.4
20220813074926 26 0 0.0 0.0 0.00 0.00 0.00 81 1015.3
20220813074803 26 0 0.0 0.0 0.00 0.00 0.00 81 1015.3
20220813074703 26 0 0.0 0.0 0.00 0.00 0.00 81 1015.3
20220813074645 26 0 0.0 0.0 0.00 0.00 0.00 81 1015.3
20220813074547 26 0 0.0 0.0 0.00 0.00 0.00 81 1015.3
20220813074403 26 0 0.0 0.0 0.00 0.00 0.00 81 1015.2
20220813074303 26 0 0.0 0.0 0.00 0.00 0.00 81 1015.2
20220813074203 26 0 0.0 0.0 0.00 0.00 0.00 81 1015.2
20220813074103 26 0 0.0 0.0 0.00 0.00 0.00 81 1015.2
20220813074024 26 0 0.0 0.0 0.00 0.00 0.00 81 1015.2
20220813073925 26 0 0.0 0.0 0.00 0.00 0.00 81 1015.2
20220813073803 26 0 0.0 0.0 0.00 0.00 0.00 81 1015.2
20220813073703 26 0 0.0 0.0 0.00 0.00 0.00 81 1015.2
20220813073603 26 0 0.0 0.0 0.00 0.00 0.00 81 1015.3
20220813073505 26 0 0.0 0.0 0.00 0.00 0.00 81 1015.3
20220813073403 26 0 0.0 0.0 0.00 0.00 0.00 81 1015.3
20220813073303 26 0 0.0 0.0 0.00 0.00 0.00 81 1015.3
20220813073245 26 0 0.0 0.0 0.00 0.00 0.00 81 1015.3
20220813073147 26 0 0.0 0.0 0.00 0.00 0.00 81 1015.3
20220813073024 26 0 0.0 0.0 0.00 0.00 0.00 81 1015.3
20220813072924 26 0 0.0 0.0 0.00 0.00 0.00 81 1015.3
20220813072846 26 0 0.0 0.0 0.00 0.00 0.00 81 1015.3
20220813072746 26 0 0.0 0.0 0.00 0.00 0.00 81 1015.3
20220813072624 26 0 0.0 0.0 0.00 0.00 0.00 81 1015.3
20220813072524 26 0 0.0 0.0 0.00 0.00 0.00 81 1015.4
20220813072424 26 0 0.0 0.0 0.00 0.00 0.00 81 1015.3
20220813072324 26 0 0.0 0.0 0.00 0.00 0.00 81 1015.3
20220813072203 26 0 0.0 0.0 0.00 0.00 0.00 80 1015.3
20220813072103 26 0 0.0 0.0 0.00 0.00 0.00 80 1015.3
20220813072005 26 0 0.0 0.0 0.00 0.00 0.00 80 1015.3
20220813071905 26 0 0.0 0.0 0.00 0.00 0.00 80 1015.3
20220813071847 26 0 0.0 0.0 0.00 0.00 0.00 80 1015.3
20220813071748 26 0 0.0 0.0 0.00 0.00 0.00 80 1015.3
20220813071605 26 0 0.0 0.0 0.00 0.00 0.00 80 1015.3
20220813071506 26 0 0.0 0.0 0.00 0.00 0.00 80 1015.3
20220813071425 26 0 0.0 0.0 0.00 0.00 0.00 80 1015.3
20220813071326 26 0 0.0 0.0 0.00 0.00 0.00 80 1015.3
20220813071226 26 0 0.0 0.0 0.00 0.00 0.00 80 1015.3
20220813071126 26 0 0.0 0.0 0.00 0.00 0.00 80 1015.3
20220813071047 26 0 0.0 0.0 0.00 0.00 0.00 79 1015.3
20220813070926 26 0 0.0 0.0 0.00 0.00 0.00 79 1015.3
20220813070826 26 0 0.0 0.0 0.00 0.00 0.00 79 1015.4
20220813070726 26 0 0.0 0.0 0.00 0.00 0.00 79 1015.3
20220813070626 26 0 0.0 0.0 0.00 0.00 0.00 79 1015.3
20220813070526 26 0 0.0 0.0 0.00 0.00 0.00 79 1015.3
20220813070405 26 0 0.0 0.0 0.00 0.00 0.00 79 1015.4
20220813070305 26 0 0.0 0.0 0.00 0.00 0.00 78 1015.4
20220813070204 26 0 0.0 0.0 0.00 0.00 0.00 78 1015.4
20220813070106 26 0 0.0 0.0 0.00 0.00 0.00 78 1015.4
20220813070026 26 0 0.0 0.0 0.00 0.00 0.00 78 1015.5
20220813065925 26 0 0.0 0.0 0.00 0.00 0.00 78 1015.4
20220813065846 26 0 0.0 0.0 0.00 0.00 0.00 78 1015.4
20220813065749 26 0 0.0 0.0 0.00 0.00 0.00 78 1015.4
20220813065605 26 0 0.0 0.0 0.00 0.00 0.00 78 1015.4
20220813065505 26 0 0.0 3.2 0.00 0.00 0.00 78 1015.5
20220813065405 26 0 0.0 3.2 0.00 0.00 0.00 78 1015.4
20220813065305 26 0 0.0 3.2 0.00 0.00 0.00 78 1015.5
20220813065205 26 0 0.0 3.2 0.00 0.00 0.00 78 1015.4
20220813065105 26 0 0.0 3.2 0.00 0.00 0.00 78 1015.4
20220813065005 26 0 0.0 3.2 0.00 0.00 0.00 78 1015.4
20220813064905 27 0 0.0 3.2 0.00 0.00 0.00 78 1015.4
20220813064825 27 319 0.0 3.2 0.00 0.00 0.00 78 1015.5
20220813064726 27 319 0.0 3.2 0.00 0.00 0.00 77 1015.6
20220813064604 27 319 0.0 3.2 0.00 0.00 0.00 77 1015.5
20220813064506 27 319 0.0 4.8 0.00 0.00 0.00 77 1015.5
20220813064425 27 319 0.0 4.8 0.00 0.00 0.00 77 1015.5
20220813064325 27 319 0.0 4.8 0.00 0.00 0.00 77 1015.5
20220813064247 27 319 0.0 4.8 0.00 0.00 0.00 77 1015.5
20220813064147 27 319 0.0 4.8 0.00 0.00 0.00 77 1015.5
20220813064005 27 319 1.6 4.8 0.00 0.00 0.00 77 1015.5
20220813063906 27 319 1.6 4.8 0.00 0.00 0.00 77 1015.5
20220813063826 27 319 1.6 4.8 0.00 0.00 0.00 77 1015.5
20220813063726 27 319 1.6 4.8 0.00 0.00 0.00 77 1015.5
20220813063605 27 319 1.6 4.8 0.00 0.00 0.00 77 1015.5
20220813063505 27 319 1.6 3.2 0.00 0.00 0.00 77 1015.5
20220813063426 27 319 1.6 3.2 0.00 0.00 0.00 77 1015.5
20220813063326 27 319 0.0 3.2 0.00 0.00 0.00 77 1015.5
20220813063204 27 319 1.6 3.2 0.00 0.00 0.00 77 1015.6
20220813063105 27 319 1.6 3.2 0.00 0.00 0.00 77 1015.5
20220813063025 27 319 1.6 3.2 0.00 0.00 0.00 77 1015.5
20220813062927 27 319 0.0 3.2 0.00 0.00 0.00 76 1015.6
20220813062825 27 319 0.0 3.2 0.00 0.00 0.00 76 1015.5
20220813062727 27 319 0.0 3.2 0.00 0.00 0.00 76 1015.6
20220813062604 27 319 0.0 3.2 0.00 0.00 0.00 76 1015.5
20220813062505 27 319 0.0 3.2 0.00 0.00 0.00 76 1015.5
20220813062447 27 319 0.0 3.2 0.00 0.00 0.00 76 1015.5
20220813062347 27 319 0.0 3.2 0.00 0.00 0.00 76 1015.5
20220813062205 27 319 0.0 3.2 0.00 0.00 0.00 76 1015.5
20220813062105 27 319 0.0 3.2 0.00 0.00 0.00 76 1015.5
20220813062004 27 319 0.0 3.2 0.00 0.00 0.00 76 1015.5
20220813061906 27 319 0.0 4.8 0.00 0.00 0.00 76 1015.6
20220813061804 27 319 0.0 4.8 0.00 0.00 0.00 76 1015.6
20220813061706 27 319 0.0 4.8 0.00 0.00 0.00 76 1015.5
20220813061626 27 319 0.0 4.8 0.00 0.00 0.00 76 1015.6
20220813061526 27 319 0.0 4.8 0.00 0.00 0.00 76 1015.6
20220813061405 27 319 0.0 4.8 0.00 0.00 0.00 76 1015.6
20220813061304 27 319 0.0 4.8 0.00 0.00 0.00 76 1015.5
20220813061204 27 319 1.6 4.8 0.00 0.00 0.00 76 1015.5
20220813061104 27 319 1.6 4.8 0.00 0.00 0.00 76 1015.5
20220813061004 27 319 0.0 4.8 0.00 0.00 0.00 76 1015.5
20220813060905 27 319 0.0 3.2 0.00 0.00 0.00 76 1015.5
20220813060805 27 319 0.0 3.2 0.00 0.00 0.00 76 1015.5
20220813060705 27 319 0.0 3.2 0.00 0.00 0.00 76 1015.5
20220813060605 27 319 0.0 3.2 0.00 0.00 0.00 76 1015.5
20220813060505 27 319 0.0 3.2 0.00 0.00 0.00 76 1015.5
20220813060426 27 319 0.0 3.2 0.00 0.00 0.00 76 1015.5
20220813060327 27 319 0.0 3.2 0.00 0.00 0.00 76 1015.5
20220813060204 27 319 0.0 3.2 0.00 0.00 0.00 76 1015.5
20220813060104 27 319 0.0 4.8 0.00 0.00 0.00 76 1015.5
20220813060004 27 319 1.6 4.8 0.00 0.00 0.00 76 1015.5
20220813055904 27 319 1.6 4.8 0.00 0.00 0.00 76 1015.5
20220813055825 27 319 1.6 4.8 0.00 0.00 0.00 76 1015.5
20220813055727 27 319 1.6 4.8 0.00 0.00 0.00 76 1015.5
20220813055605 27 319 1.6 4.8 0.00 0.00 0.00 76 1015.5
20220813055505 27 319 1.6 4.8 0.00 0.00 0.00 76 1015.5
20220813055405 27 319 1.6 4.8 0.00 0.00 0.00 76 1015.4
20220813055305 27 319 1.6 4.8 0.00 0.00 0.00 75 1015.4
20220813055247 27 319 1.6 4.8 0.00 0.00 0.00 75 1015.4
20220813055147 27 319 0.0 4.8 0.00 0.00 0.00 75 1015.4
20220813055005 27 319 0.0 4.8 0.00 0.00 0.00 75 1015.4
20220813054906 27 319 0.0 4.8 0.00 0.00 0.00 75 1015.4
20220813054847 27 319 0.0 4.8 0.00 0.00 0.00 75 1015.4
20220813054747 27 319 0.0 4.8 0.00 0.00 0.00 75 1015.4
20220813054626 27 319 0.0 3.2 0.00 0.00 0.00 75 1015.4
20220813054526 27 319 0.0 3.2 0.00 0.00 0.00 75 1015.4
20220813054404 27 319 0.0 3.2 0.00 0.00 0.00 75 1015.4
20220813054305 27 319 1.6 3.2 0.00 0.00 0.00 75 1015.5
20220813054225 27 319 1.6 3.2 0.00 0.00 0.00 75 1015.5
20220813054126 27 319 1.6 3.2 0.00 0.00 0.00 75 1015.5
20220813054004 27 319 1.6 3.2 0.00 0.00 0.00 75 1015.5
20220813053906 27 319 1.6 3.2 0.00 0.00 0.00 75 1015.5
20220813053804 27 319 1.6 3.2 0.00 0.00 0.00 75 1015.5
20220813053705 27 319 1.6 3.2 0.00 0.00 0.00 75 1015.5
20220813053626 27 319 1.6 3.2 0.00 0.00 0.00 75 1015.5
20220813053526 27 319 1.6 4.8 0.00 0.00 0.00 75 1015.5
20220813053447 27 319 1.6 4.8 0.00 0.00 0.00 75 1015.5
20220813053347 27 319 1.6 4.8 0.00 0.00 0.00 75 1015.5
20220813053205 27 319 1.6 4.8 0.00 0.00 0.00 75 1015.5
20220813053106 27 319 1.6 4.8 0.00 0.00 0.00 75 1015.5
20220813053047 27 319 1.6 4.8 0.00 0.00 0.00 75 1015.5
20220813052947 27 319 1.6 4.8 0.00 0.00 0.00 75 1015.5
20220813052804 27 319 1.6 4.8 0.00 0.00 0.00 75 1015.5
20220813052705 27 319 1.6 4.8 0.00 0.00 0.00 75 1015.6
20220813052625 27 319 0.0 4.8 0.00 0.00 0.00 75 1015.5
20220813052525 27 319 0.0 3.2 0.00 0.00 0.00 75 1015.5
20220813052426 27 319 0.0 3.2 0.00 0.00 0.00 75 1015.6
20220813052325 27 319 0.0 3.2 0.00 0.00 0.00 75 1015.6
20220813052204 27 319 0.0 3.2 0.00 0.00 0.00 75 1015.6
20220813052106 27 319 0.0 3.2 0.00 0.00 0.00 75 1015.6
20220813052005 27 319 0.0 3.2 0.00 0.00 0.00 75 1015.6
20220813051905 27 319 0.0 4.8 0.00 0.00 0.00 75 1015.5
20220813051826 27 319 0.0 4.8 0.00 0.00 0.00 75 1015.5
20220813051727 27 319 1.6 4.8 0.00 0.00 0.00 75 1015.5
20220813051605 27 319 1.6 4.8 0.00 0.00 0.00 75 1015.5
20220813051506 27 319 1.6 4.8 0.00 0.00 0.00 75 1015.5
20220813051447 27 319 1.6 4.8 0.00 0.00 0.00 75 1015.5
20220813051347 27 319 1.6 4.8 0.00 0.00 0.00 75 1015.5
20220813051204 27 319 1.6 4.8 0.00 0.00 0.00 75 1015.6
20220813051105 27 319 1.6 4.8 0.00 0.00 0.00 75 1015.5
20220813051004 27 319 1.6 4.8 0.00 0.00 0.00 75 1015.6
20220813050926 27 319 1.6 4.8 0.00 0.00 0.00 75 1015.6
20220813050847 27 319 1.6 4.8 0.00 0.00 0.00 75 1015.6
20220813050747 27 319 1.6 4.8 0.00 0.00 0.00 75 1015.6
20220813050626 27 319 1.6 4.8 0.00 0.00 0.00 75 1015.6
20220813050526 27 319 1.6 4.8 0.00 0.00 0.00 75 1015.6
20220813050426 27 319 1.6 4.8 0.00 0.00 0.00 75 1015.6
20220813050326 27 319 1.6 4.8 0.00 0.00 0.00 75 1015.5
20220813050204 27 319 1.6 4.8 0.00 0.00 0.00 75 1015.6
20220813050105 27 319 1.6 4.8 0.00 0.00 0.00 75 1015.6
20220813050026 27 319 1.6 4.8 0.00 0.00 0.00 75 1015.6
20220813045926 27 319 1.6 3.2 0.00 0.00 0.00 75 1015.5
20220813045826 27 319 1.6 3.2 0.00 0.00 0.00 75 1015.6
20220813045727 27 319 1.6 6.4 0.00 0.00 0.00 75 1015.5
20220813045626 27 319 1.6 6.4 0.00 0.00 0.00 75 1015.5
20220813045526 27 319 1.6 6.4 0.00 0.00 0.00 75 1015.6
20220813045425 27 319 1.6 6.4 0.00 0.00 0.00 75 1015.5
20220813045327 27 318 1.6 6.4 0.00 0.00 0.00 75 1015.5
20220813045204 27 318 1.6 6.4 0.00 0.00 0.00 75 1015.5
20220813045104 27 318 1.6 6.4 0.00 0.00 0.00 75 1015.5
20220813045046 27 318 1.6 6.4 0.00 0.00 0.00 75 1015.4
20220813044948 27 318 1.6 6.4 0.00 0.00 0.00 75 1015.4
20220813044804 27 318 1.6 6.4 0.00 0.00 0.00 75 1015.4
20220813044705 27 317 1.6 6.4 0.00 0.00 0.00 74 1015.4
20220813044605 27 317 1.6 6.4 0.00 0.00 0.00 74 1015.4
20220813044505 27 317 1.6 6.4 0.00 0.00 0.00 74 1015.4
20220813044426 27 317 1.6 6.4 0.00 0.00 0.00 74 1015.4
20220813044327 27 317 1.6 6.4 0.00 0.00 0.00 74 1015.4
20220813044226 27 317 1.6 6.4 0.00 0.00 0.00 74 1015.4
20220813044126 27 316 1.6 6.4 0.00 0.00 0.00 74 1015.4
20220813044005 27 316 1.6 6.4 0.00 0.00 0.00 74 1015.4
20220813043906 27 316 1.6 4.8 0.00 0.00 0.00 74 1015.4
20220813043826 27 316 1.6 4.8 0.00 0.00 0.00 74 1015.4
20220813043726 27 316 1.6 4.8 0.00 0.00 0.00 74 1015.3
20220813043605 27 316 1.6 4.8 0.00 0.00 0.00 74 1015.3
20220813043505 27 316 1.6 4.8 0.00 0.00 0.00 74 1015.3
20220813043405 27 316 1.6 4.8 0.00 0.00 0.00 74 1015.3
20220813043305 27 316 0.0 4.8 0.00 0.00 0.00 74 1015.3
20220813043226 27 316 0.0 4.8 0.00 0.00 0.00 74 1015.3
20220813043125 27 316 0.0 4.8 0.00 0.00 0.00 74 1015.3
20220813043004 27 316 0.0 6.4 0.00 0.00 0.00 73 1015.3
20220813042906 27 316 1.6 6.4 0.00 0.00 0.00 73 1015.3
20220813042804 27 316 1.6 6.4 0.00 0.00 0.00 73 1015.3
20220813042705 27 319 1.6 6.4 0.00 0.00 0.00 73 1015.4
20220813042604 28 333 1.6 6.4 0.00 0.00 0.00 73 1015.3
20220813042504 28 348 1.6 6.4 0.00 0.00 0.00 73 1015.4
20220813042425 28 350 1.6 6.4 0.00 0.00 0.00 73 1015.4
20220813042327 28 2 1.6 6.4 0.00 0.00 0.00 73 1015.3
20220813042204 28 18 1.6 6.4 0.00 0.00 0.00 73 1015.4
20220813042106 28 21 1.6 6.4 0.00 0.00 0.00 73 1015.4
20220813042004 28 35 1.6 6.4 0.00 0.00 0.00 73 1015.4
20220813041904 28 40 1.6 6.4 0.00 0.00 0.00 73 1015.4
20220813041804 28 46 3.2 6.4 0.00 0.00 0.00 73 1015.4
20220813041706 28 52 1.6 6.4 0.00 0.00 0.00 73 1015.4
20220813041647 28 52 1.6 6.4 0.00 0.00 0.00 73 1015.4
20220813041547 28 52 1.6 6.4 0.00 0.00 0.00 73 1015.4
20220813041405 28 52 3.2 6.4 0.00 0.00 0.00 73 1015.3
20220813041305 28 52 3.2 6.4 0.00 0.00 0.00 73 1015.3
20220813041247 28 52 3.2 6.4 0.00 0.00 0.00 73 1015.4
20220813041147 28 52 3.2 8.0 0.00 0.00 0.00 73 1015.3
20220813041026 28 51 3.2 8.0 0.00 0.00 0.00 73 1015.3
20220813040905 28 51 3.2 8.0 0.00 0.00 0.00 73 1015.3
20220813040804 28 50 3.2 8.0 0.00 0.00 0.00 73 1015.3
20220813040706 28 50 3.2 8.0 0.00 0.00 0.00 73 1015.3
20220813040604 28 50 4.8 8.0 0.00 0.00 0.00 73 1015.3
20220813040504 28 49 4.8 8.0 0.00 0.00 0.00 73 1015.3
20220813040404 28 49 4.8 8.0 0.00 0.00 0.00 73 1015.3
20220813040304 28 49 3.2 8.0 0.00 0.00 0.00 73 1015.3
20220813040246 28 49 3.2 8.0 0.00 0.00 0.00 73 1015.3
20220813040147 28 49 3.2 8.0 0.00 0.00 0.00 73 1015.3
20220813040047 28 49 3.2 6.4 0.00 0.00 0.00 73 1015.3
20220813035947 28 50 3.2 6.4 0.00 0.00 0.00 73 1015.3
20220813035826 28 50 3.2 6.4 0.00 0.00 0.00 73 1015.2
20220813035727 28 50 3.2 8.0 0.00 0.00 0.00 73 1015.3
20220813035626 28 49 3.2 8.0 0.00 0.00 0.00 72 1015.2
20220813035526 28 50 3.2 8.0 0.00 0.00 0.00 72 1015.2
20220813035405 28 49 3.2 8.0 0.00 0.00 0.00 72 1015.3
20220813035305 28 48 3.2 8.0 0.00 0.00 0.00 72 1015.3
20220813035247 28 48 3.2 8.0 0.00 0.00 0.00 72 1015.3
20220813035147 28 46 4.8 9.7 0.00 0.00 0.00 72 1015.2
20220813035026 28 43 4.8 9.7 0.00 0.00 0.00 72 1015.2
20220813034926 28 41 4.8 9.7 0.00 0.00 0.00 72 1015.2
20220813034805 28 39 4.8 9.7 0.00 0.00 0.00 72 1015.3
20220813034706 28 39 4.8 9.7 0.00 0.00 0.00 72 1015.3
20220813034604 28 40 4.8 11.3 0.00 0.00 0.00 72 1015.3
20220813034505 28 41 4.8 11.3 0.00 0.00 0.00 72 1015.3
20220813034404 28 41 4.8 11.3 0.00 0.00 0.00 71 1015.3
20220813034304 28 41 4.8 11.3 0.00 0.00 0.00 71 1015.3
20220813034204 28 38 4.8 11.3 0.00 0.00 0.00 71 1015.3
20220813034105 28 36 4.8 11.3 0.00 0.00 0.00 71 1015.2
20220813034004 28 34 4.8 11.3 0.00 0.00 0.00 71 1015.2
20220813033904 28 31 4.8 11.3 0.00 0.00 0.00 71 1015.3
20220813033825 28 30 4.8 11.3 0.00 0.00 0.00 71 1015.2
20220813033725 28 25 3.2 11.3 0.00 0.00 0.00 71 1015.3
20220813033604 28 11 3.2 9.7 0.00 0.00 0.00 71 1015.2
20220813033504 28 358 3.2 8.0 0.00 0.00 0.00 71 1015.2
20220813033447 28 356 3.2 8.0 0.00 0.00 0.00 71 1015.2
20220813033347 28 353 3.2 8.0 0.00 0.00 0.00 70 1015.2
20220813033247 28 353 3.2 8.0 0.00 0.00 0.00 70 1015.2
20220813033147 28 353 3.2 8.0 0.00 0.00 0.00 70 1015.2
20220813033026 28 358 1.6 8.0 0.00 0.00 0.00 70 1015.2
20220813032926 28 6 3.2 8.0 0.00 0.00 0.00 70 1015.2
20220813032805 28 358 3.2 8.0 0.00 0.00 0.00 70 1015.2
20220813032704 28 1 3.2 8.0 0.00 0.00 0.00 70 1015.2
20220813032604 28 7 3.2 8.0 0.00 0.00 0.00 70 1015.2
20220813032506 28 13 3.2 8.0 0.00 0.00 0.00 70 1015.2
20220813032404 28 19 3.2 8.0 0.00 0.00 0.00 70 1015.2
20220813032305 28 13 3.2 8.0 0.00 0.00 0.00 70 1015.2
20220813032204 28 7 3.2 8.0 0.00 0.00 0.00 70 1015.2
20220813032106 28 2 3.2 8.0 0.00 0.00 0.00 70 1015.2
20220813032004 28 359 3.2 8.0 0.00 0.00 0.00 70 1015.2
20220813031904 28 360 3.2 8.0 0.00 0.00 0.00 70 1015.2
20220813031826 28 7 3.2 8.0 0.00 0.00 0.00 70 1015.2
20220813031726 28 9 3.2 8.0 0.00 0.00 0.00 70 1015.2
20220813031626 28 10 3.2 8.0 0.00 0.00 0.00 70 1015.2
20220813031526 28 9 3.2 8.0 0.00 0.00 0.00 70 1015.1
20220813031405 28 6 3.2 9.7 0.00 0.00 0.00 70 1015.1
20220813031305 28 6 3.2 9.7 0.00 0.00 0.00 70 1015.1
20220813031226 28 2 3.2 9.7 0.00 0.00 0.00 69 1015.0
20220813031127 28 356 3.2 9.7 0.00 0.00 0.00 70 1015.1
20220813031026 28 351 3.2 9.7 0.00 0.00 0.00 70 1015.0
20220813030926 28 345 3.2 9.7 0.00 0.00 0.00 70 1015.0
20220813030825 28 338 3.2 9.7 0.00 0.00 0.00 69 1014.9
20220813030726 28 338 4.8 9.7 0.00 0.00 0.00 70 1014.9
20220813030604 28 335 4.8 9.7 0.00 0.00 0.00 69 1014.9
20220813030504 28 328 3.2 9.7 0.00 0.00 0.00 70 1014.9
20220813030446 28 326 3.2 9.7 0.00 0.00 0.00 70 1014.9
20220813030346 28 323 3.2 9.7 0.00 0.00 0.00 70 1014.9
20220813030204 28 324 3.2 9.7 0.00 0.00 0.00 69 1014.8
20220813030104 28 324 3.2 9.7 0.00 0.00 0.00 69 1014.8
20220813030026 28 324 3.2 9.7 0.00 0.00 0.00 69 1014.8
20220813025926 28 324 3.2 9.7 0.00 0.00 0.00 69 1014.8
20220813025847 28 323 3.2 9.7 0.00 0.00 0.00 69 1014.8
20220813025748 28 320 3.2 9.7 0.00 0.00 0.00 69 1014.8
20220813025605 28 317 3.2 8.0 0.00 0.00 0.00 70 1014.8
20220813025505 28 323 3.2 9.7 0.00 0.00 0.00 70 1014.8
20220813025405 28 329 3.2 9.7 0.00 0.00 0.00 70 1014.8
20220813025305 28 329 3.2 9.7 0.00 0.00 0.00 70 1014.8
20220813025226 28 329 3.2 9.7 0.00 0.00 0.00 70 1014.8
20220813025127 28 333 3.2 9.7 0.00 0.00 0.00 70 1014.8
20220813025026 28 333 3.2 9.7 0.00 0.00 0.00 70 1014.8
20220813024925 28 334 3.2 9.7 0.00 0.00 0.00 70 1014.8
20220813024826 28 336 3.2 9.7 0.00 0.00 0.00 70 1014.8
20220813024727 28 338 3.2 9.7 0.00 0.00 0.00 70 1014.7
20220813024626 28 338 3.2 9.7 0.00 0.00 0.00 70 1014.7
20220813024526 28 333 3.2 8.0 0.00 0.00 0.00 70 1014.7
20220813024405 29 325 3.2 9.7 0.00 0.00 0.00 70 1014.7
20220813024305 29 325 3.2 9.7 0.00 0.00 0.00 70 1014.7
20220813024225 29 326 4.8 9.7 0.00 0.00 0.00 70 1014.6
20220813024125 29 322 4.8 9.7 0.00 0.00 0.00 70 1014.6
20220813024046 29 320 4.8 9.7 0.00 0.00 0.00 70 1014.6
20220813023946 29 317 4.8 9.7 0.00 0.00 0.00 70 1014.6
20220813023826 29 311 3.2 9.7 0.00 0.00 0.00 70 1014.6
20220813023727 29 305 4.8 9.7 0.00 0.00 0.00 70 1014.6
20220813023626 29 307 4.8 12.9 0.00 0.00 0.00 70 1014.6
20220813023526 29 303 4.8 12.9 0.00 0.00 0.00 70 1014.6
20220813023426 29 299 4.8 12.9 0.00 0.00 0.00 70 1014.5
20220813023326 29 297 4.8 12.9 0.00 0.00 0.00 70 1014.5
20220813023204 29 291 4.8 12.9 0.00 0.00 0.00 70 1014.5
20220813023106 29 289 4.8 12.9 0.00 0.00 0.00 69 1014.5
20220813023047 29 289 4.8 12.9 0.00 0.00 0.00 70 1014.5
20220813022947 29 290 4.8 12.9 0.00 0.00 0.00 70 1014.5
20220813022805 29 295 4.8 12.9 0.00 0.00 0.00 69 1014.4
20220813022704 29 295 4.8 12.9 0.00 0.00 0.00 69 1014.4
20220813022646 29 294 4.8 12.9 0.00 0.00 0.00 69 1014.4
20220813022546 29 289 4.8 9.7 0.00 0.00 0.00 69 1014.4
20220813022425 29 286 4.8 9.7 0.00 0.00 0.00 69 1014.4
20220813022327 29 282 3.2 9.7 0.00 0.00 0.00 69 1014.3
20220813022204 29 278 4.8 9.7 0.00 0.00 0.00 69 1014.4
20220813022104 29 276 4.8 12.9 0.00 0.00 0.00 69 1014.3
20220813022004 29 272 4.8 12.9 0.00 0.00 0.00 69 1014.3
20220813021904 29 272 4.8 12.9 0.00 0.00 0.00 69 1014.3
20220813021804 29 268 4.8 12.9 0.00 0.00 0.00 69 1014.3
20220813021704 29 267 4.8 12.9 0.00 0.00 0.00 68 1014.3
20220813021604 29 266 4.8 12.9 0.00 0.00 0.00 68 1014.3
20220813021504 30 269 4.8 14.5 0.00 0.00 0.00 68 1014.3
20220813021405 30 270 4.8 14.5 0.00 0.00 0.00 68 1014.2
20220813021306 30 271 4.8 14.5 0.00 0.00 0.00 68 1014.2
20220813021225 30 273 4.8 14.5 0.00 0.00 0.00 68 1014.1
20220813021126 30 277 4.8 14.5 0.00 0.00 0.00 68 1014.1
20220813021005 30 278 4.8 14.5 0.00 0.00 0.00 67 1014.1
20220813020947 30 277 4.8 14.5 0.00 0.00 0.00 67 1014.1
20220813020805 30 282 4.8 14.5 0.00 0.00 0.00 67 1014.1
20220813020705 30 282 4.8 14.5 0.00 0.00 0.00 67 1014.0
20220813020626 30 285 4.8 14.5 0.00 0.00 0.00 67 1014.0
20220813020526 30 284 4.8 12.9 0.00 0.00 0.00 67 1014.0
20220813020447 30 284 4.8 12.9 0.00 0.00 0.00 67 1014.0
20220813020347 30 284 4.8 12.9 0.00 0.00 0.00 67 1014.0
20220813020205 30 290 4.8 12.9 0.00 0.00 0.00 67 1014.0
20220813020105 30 288 4.8 12.9 0.00 0.00 0.00 67 1014.0
20220813020005 30 290 4.8 12.9 0.00 0.00 0.00 67 1014.0
20220813015905 30 292 4.8 12.9 0.00 0.00 0.00 66 1014.0
20220813015826 30 293 4.8 12.9 0.00 0.00 0.00 66 1014.0
20220813015725 30 295 4.8 14.5 0.00 0.00 0.00 66 1014.0
20220813015625 30 299 4.8 14.5 0.00 0.00 0.00 66 1013.9
20220813015525 30 302 4.8 14.5 0.00 0.00 0.00 66 1013.9
20220813015404 30 304 4.8 14.5 0.00 0.00 0.00 66 1013.9
20220813015306 30 304 4.8 14.5 0.00 0.00 0.00 66 1013.9
20220813015204 30 301 6.4 14.5 0.00 0.00 0.00 66 1013.9
20220813015105 30 301 4.8 14.5 0.00 0.00 0.00 66 1013.9
20220813015005 30 300 4.8 14.5 0.00 0.00 0.00 66 1013.9
20220813014906 30 300 4.8 14.5 0.00 0.00 0.00 66 1013.9
20220813014804 30 297 4.8 14.5 0.00 0.00 0.00 66 1013.9
20220813014705 30 291 4.8 12.9 0.00 0.00 0.00 65 1013.8
20220813014604 30 288 4.8 12.9 0.00 0.00 0.00 65 1013.9
20220813014504 30 289 4.8 12.9 0.00 0.00 0.00 65 1013.8
20220813014425 30 289 4.8 12.9 0.00 0.00 0.00 65 1013.8
20220813014325 30 280 3.2 11.3 0.00 0.00 0.00 65 1013.8
20220813014205 30 283 4.8 12.9 0.00 0.00 0.00 65 1013.8
20220813014106 30 283 4.8 12.9 0.00 0.00 0.00 65 1013.9
20220813014004 30 279 6.4 16.1 0.00 0.00 0.00 65 1013.8
20220813013905 30 282 6.4 20.9 0.00 0.00 0.00 65 1013.8
20220813013847 30 283 6.4 20.9 0.00 0.00 0.00 65 1013.8
20220813013747 30 282 6.4 20.9 0.00 0.00 0.00 65 1013.8
20220813013604 30 281 6.4 20.9 0.00 0.00 0.00 65 1013.8
20220813013504 30 280 6.4 20.9 0.00 0.00 0.00 65 1013.8
20220813013425 30 277 8.0 20.9 0.00 0.00 0.00 65 1013.8
20220813013325 30 279 8.0 20.9 0.00 0.00 0.00 64 1013.8
20220813013225 30 281 8.0 20.9 0.00 0.00 0.00 64 1013.8
20220813013125 30 282 8.0 20.9 0.00 0.00 0.00 64 1013.8
20220813013004 30 285 8.0 20.9 0.00 0.00 0.00 63 1013.8
20220813012905 30 281 8.0 19.3 0.00 0.00 0.00 63 1013.7
20220813012805 30 281 8.0 19.3 0.00 0.00 0.00 63 1013.7
20220813012706 31 277 8.0 19.3 0.00 0.00 0.00 62 1013.7
20220813012647 31 278 8.0 19.3 0.00 0.00 0.00 62 1013.7
20220813012547 31 278 8.0 19.3 0.00 0.00 0.00 62 1013.7
20220813012404 31 275 6.4 19.3 0.00 0.00 0.00 61 1013.7
20220813012306 31 270 6.4 17.7 0.00 0.00 0.00 61 1013.7
20220813012225 31 269 4.8 17.7 0.00 0.00 0.00 60 1013.6
20220813012126 31 263 4.8 17.7 0.00 0.00 0.00 60 1013.7
20220813012004 31 258 3.2 12.9 0.00 0.00 0.00 60 1013.6
20220813011904 31 256 3.2 12.9 0.00 0.00 0.00 60 1013.6
20220813011825 31 252 3.2 11.3 0.00 0.00 0.00 60 1013.6
20220813011725 31 255 3.2 11.3 0.00 0.00 0.00 60 1013.6
20220813011604 31 263 3.2 11.3 0.00 0.00 0.00 60 1013.6
20220813011504 31 265 3.2 11.3 0.00 0.00 0.00 60 1013.5
20220813011404 31 270 3.2 11.3 0.00 0.00 0.00 60 1013.5
20220813011304 31 273 4.8 11.3 0.00 0.00 0.00 60 1013.5
20220813011225 31 274 4.8 16.1 0.00 0.00 0.00 60 1013.4
20220813011125 31 281 4.8 16.1 0.00 0.00 0.00 60 1013.4
20220813011047 31 286 4.8 16.1 0.00 0.00 0.00 60 1013.4
20220813010905 31 289 4.8 16.1 0.00 0.00 0.00 60 1013.3
20220813010804 31 290 4.8 16.1 0.00 0.00 0.00 60 1013.3
20220813010706 31 290 4.8 16.1 0.00 0.00 0.00 60 1013.3
20220813010605 31 288 4.8 16.1 0.00 0.00 0.00 60 1013.2
20220813010505 31 288 4.8 16.1 0.00 0.00 0.00 60 1013.2
20220813010425 31 287 4.8 16.1 0.00 0.00 0.00 60 1013.2
20220813010326 31 284 4.8 16.1 0.00 0.00 0.00 60 1013.2
20220813010225 31 282 4.8 14.5 0.00 0.00 0.00 60 1013.1
20220813010127 31 279 4.8 11.3 0.00 0.00 0.00 60 1013.0
20220813010046 31 279 4.8 11.3 0.00 0.00 0.00 60 1013.0
20220813005946 31 274 4.8 11.3 0.00 0.00 0.00 60 1013.0
20220813005825 31 274 4.8 11.3 0.00 0.00 0.00 60 1013.0
20220813005725 31 273 4.8 11.3 0.00 0.00 0.00 60 1013.0
20220813005625 31 269 4.8 11.3 0.00 0.00 0.00 60 1012.9
20220813005525 31 275 4.8 12.9 0.00 0.00 0.00 61 1013.0
20220813005404 31 279 4.8 12.9 0.00 0.00 0.00 61 1013.0
20220813005305 31 285 6.4 12.9 0.00 0.00 0.00 61 1012.9
20220813005205 31 285 6.4 22.5 0.00 0.00 0.00 61 1013.0
20220813005106 31 278 6.4 22.5 0.00 0.00 0.00 61 1012.9
20220813005004 31 277 6.4 22.5 0.00 0.00 0.00 61 1013.0
20220813004904 31 277 6.4 22.5 0.00 0.00 0.00 61 1013.0
20220813004804 31 276 6.4 22.5 0.00 0.00 0.00 61 1013.0
20220813004706 31 275 6.4 22.5 0.00 0.00 0.00 60 1012.9
20220813004625 31 277 6.4 22.5 0.00 0.00 0.00 60 1012.9
20220813004525 31 272 6.4 22.5 0.00 0.00 0.00 61 1012.9
20220813004425 31 272 8.0 22.5 0.00 0.00 0.00 60 1012.9
20220813004327 31 271 8.0 22.5 0.00 0.00 0.00 60 1012.9
20220813004204 31 268 8.0 22.5 0.00 0.00 0.00 60 1012.9
20220813004105 31 271 8.0 22.5 0.00 0.00 0.00 60 1013.0
20220813004026 31 272 8.0 22.5 0.00 0.00 0.00 59 1013.0
20220813003926 31 273 8.0 22.5 0.00 0.00 0.00 59 1013.0
20220813003825 31 272 8.0 22.5 0.00 0.00 0.00 59 1013.0
20220813003726 31 274 9.7 22.5 0.00 0.00 0.00 58 1013.0
20220813003625 31 276 9.7 22.5 0.00 0.00 0.00 58 1013.0
20220813003525 31 278 9.7 22.5 0.00 0.00 0.00 58 1013.0
20220813003404 31 279 9.7 22.5 0.00 0.00 0.00 58 1013.1
20220813003306 31 279 11.3 22.5 0.00 0.00 0.00 58 1013.1
20220813003246 31 279 11.3 22.5 0.00 0.00 0.00 57 1013.1
20220813003146 32 280 11.3 29.0 0.00 0.00 0.00 58 1013.1
20220813003025 32 280 12.9 29.0 0.00 0.00 0.00 58 1013.0
20220813002927 32 279 12.9 29.0 0.00 0.00 0.00 57 1013.1
20220813002825 32 278 16.1 37.0 0.00 0.00 0.00 57 1013.1
20220813002726 32 278 16.1 37.0 0.00 0.00 0.00 57 1013.0
20220813002647 32 278 16.1 37.0 0.00 0.00 0.00 56 1013.0
20220813002547 32 277 16.1 37.0 0.00 0.00 0.00 56 1013.0
20220813002447 32 276 16.1 37.0 0.00 0.00 0.00 56 1013.0
20220813002348 32 275 16.1 37.0 0.00 0.00 0.00 55 1013.1
20220813002204 32 273 14.5 37.0 0.00 0.00 0.00 54 1013.1
20220813002104 33 269 12.9 37.0 0.00 0.00 0.00 54 1013.0
20220813002047 33 268 12.9 37.0 0.00 0.00 0.00 53 1013.0
20220813001947 33 267 11.3 37.0 0.00 0.00 0.00 52 1013.0
20220813001804 34 265 8.0 37.0 0.00 0.00 0.00 50 1013.0
20220813001704 34 261 8.0 27.4 0.00 0.00 0.00 48 1013.0
20220813001604 35 258 8.0 17.7 0.00 0.00 0.00 47 1012.8
20220813001504 35 260 8.0 17.7 0.00 0.00 0.00 46 1012.8
20220813001446 35 259 8.0 17.7 0.00 0.00 0.00 45 1012.7
20220813001346 35 259 8.0 17.7 0.00 0.00 0.00 45 1012.7
20220813001204 35 260 8.0 22.5 0.00 0.00 0.00 44 1012.5
20220813001104 35 262 8.0 22.5 0.00 0.00 0.00 44 1012.5
20220813001004 35 262 9.7 22.5 0.00 0.00 0.00 44 1012.4
20220813000904 35 261 9.7 22.5 0.00 0.00 0.00 44 1012.5
20220813000825 35 260 8.0 22.5 0.00 0.00 0.00 44 1012.4
20220813000725 35 259 9.7 22.5 0.00 0.00 0.00 44 1012.5
20220813000604 35 262 9.7 22.5 0.00 0.00 0.00 44 1012.5
20220813000506 35 263 9.7 22.5 0.00 0.00 0.00 44 1012.5
20220813000404 35 263 8.0 22.5 0.00 0.00 0.00 44 1012.4
20220813000306 35 264 8.0 19.3 0.00 0.00 0.00 44 1012.4
20220813000225 35 263 8.0 19.3 0.00 0.00 0.00 44 1012.4
20220813000125 35 262 6.4 19.3 0.00 0.00 0.00 44 1012.4
20220813000004 35 265 8.0 16.1 0.00 0.00 0.00 44 1012.4
20220812235904 35 268 6.4 16.1 0.00 0.00 0.00 44 1012.4
20220812235846 35 267 6.4 16.1 0.00 0.00 0.00 44 1012.4
20220812235746 35 267 8.0 16.1 0.00 0.00 0.00 44 1012.4
20220812235625 35 268 6.4 16.1 0.00 0.00 0.00 44 1012.4
20220812235526 35 266 6.4 16.1 0.00 0.00 0.00 44 1012.4
20220812235405 35 264 6.4 14.5 0.00 0.00 0.00 44 1012.4
20220812235306 35 262 6.4 14.5 0.00 0.00 0.00 45 1012.4
20220812235205 35 262 6.4 14.5 0.00 0.00 0.00 45 1012.4
20220812235105 35 262 6.4 14.5 0.00 0.00 0.00 45 1012.3
20220812235004 35 260 6.4 14.5 0.00 0.00 0.00 44 1012.4
20220812234904 35 259 4.8 14.5 0.00 0.00 0.00 45 1012.4
20220812234804 35 260 4.8 14.5 0.00 0.00 0.00 45 1012.4
20220812234706 35 258 4.8 14.5 0.00 0.00 0.00 45 1012.4
20220812234604 35 259 4.8 14.5 0.00 0.00 0.00 45 1012.3
20220812234504 35 260 4.8 14.5 0.00 0.00 0.00 45 1012.4
20220812234404 35 263 4.8 14.5 0.00 0.00 0.00 44 1012.4
20220812234304 35 264 4.8 14.5 0.00 0.00 0.00 44 1012.3
20220812234246 35 264 4.8 12.9 0.00 0.00 0.00 44 1012.3
20220812234146 35 266 4.8 12.9 0.00 0.00 0.00 44 1012.3
20220812234004 35 266 6.4 12.9 0.00 0.00 0.00 45 1012.3
20220812233906 35 264 6.4 12.9 0.00 0.00 0.00 44 1012.3
20220812233825 35 264 6.4 12.9 0.00 0.00 0.00 44 1012.3
20220812233725 35 263 8.0 12.9 0.00 0.00 0.00 45 1012.3
20220812233604 35 265 8.0 12.9 0.00 0.00 0.00 45 1012.3
20220812233504 35 267 8.0 12.9 0.00 0.00 0.00 45 1012.4
20220812233425 35 267 8.0 14.5 0.00 0.00 0.00 45 1012.3
20220812233325 35 267 8.0 14.5 0.00 0.00 0.00 44 1012.3
20220812233205 35 266 8.0 14.5 0.00 0.00 0.00 44 1012.3
20220812233105 35 263 8.0 14.5 0.00 0.00 0.00 44 1012.3
20220812233047 35 263 8.0 14.5 0.00 0.00 0.00 44 1012.3
20220812232946 35 266 6.4 14.5 0.00 0.00 0.00 44 1012.3
20220812232804 35 265 6.4 14.5 0.00 0.00 0.00 44 1012.3
20220812232706 35 264 6.4 14.5 0.00 0.00 0.00 44 1012.3
20220812232625 35 264 6.4 14.5 0.00 0.00 0.00 44 1012.3
20220812232525 35 263 6.4 16.1 0.00 0.00 0.00 44 1012.3
20220812232404 35 264 6.4 16.1 0.00 0.00 0.00 44 1012.3
20220812232306 35 266 6.4 16.1 0.00 0.00 0.00 44 1012.3
20220812232226 35 267 6.4 16.1 0.00 0.00 0.00 44 1012.3
20220812232126 35 268 6.4 16.1 0.00 0.00 0.00 44 1012.3
20220812232004 35 267 6.4 16.1 0.00 0.00 0.00 44 1012.3
20220812231904 35 269 6.4 16.1 0.00 0.00 0.00 44 1012.3
20220812231825 35 270 6.4 16.1 0.00 0.00 0.00 44 1012.3
20220812231725 35 271 6.4 16.1 0.00 0.00 0.00 44 1012.3
20220812231604 35 271 6.4 16.1 0.00 0.00 0.00 44 1012.3
20220812231504 35 269 6.4 14.5 0.00 0.00 0.00 45 1012.3
20220812231405 35 268 6.4 12.9 0.00 0.00 0.00 45 1012.3
20220812231306 35 268 8.0 16.1 0.00 0.00 0.00 45 1012.3
20220812231226 35 268 6.4 16.1 0.00 0.00 0.00 45 1012.4
20220812231126 35 267 8.0 22.5 0.00 0.00 0.00 45 1012.4
20220812231004 35 266 8.0 22.5 0.00 0.00 0.00 45 1012.4
20220812230905 35 264 9.7 22.5 0.00 0.00 0.00 44 1012.4
20220812230804 35 263 9.7 22.5 0.00 0.00 0.00 44 1012.5
20220812230706 35 261 9.7 22.5 0.00 0.00 0.00 44 1012.5
20220812230625 35 259 9.7 22.5 0.00 0.00 0.00 43 1012.5
20220812230525 35 255 9.7 22.5 0.00 0.00 0.00 43 1012.5
20220812230446 35 253 9.7 22.5 0.00 0.00 0.00 43 1012.5
20220812230346 35 246 9.7 22.5 0.00 0.00 0.00 44 1012.5
20220812230204 35 239 9.7 22.5 0.00 0.00 0.00 43 1012.6
20220812230104 35 235 9.7 19.3 0.00 0.00 0.00 43 1012.6
20220812230004 35 231 9.7 17.7 0.00 0.00 0.00 42 1012.6
20220812225906 35 230 9.7 17.7 0.00 0.00 0.00 42 1012.6
20220812225804 35 228 9.7 19.3 0.00 0.00 0.00 42 1012.6
20220812225704 35 228 9.7 19.3 0.00 0.00 0.00 42 1012.5
20220812225625 35 228 9.7 19.3 0.00 0.00 0.00 42 1012.5
20220812225526 35 229 9.7 19.3 0.00 0.00 0.00 42 1012.6
20220812225404 35 231 9.7 19.3 0.00 0.00 0.00 42 1012.5
20220812225305 35 239 9.7 19.3 0.00 0.00 0.00 42 1012.5
20220812225246 35 239 9.7 19.3 0.00 0.00 0.00 42 1012.5
20220812225146 36 241 9.7 19.3 0.00 0.00 0.00 41 1012.5
20220812225004 36 240 9.7 20.9 0.00 0.00 0.00 42 1012.6
20220812224904 36 240 11.3 22.5 0.00 0.00 0.00 42 1012.6
20220812224804 36 239 11.3 22.5 0.00 0.00 0.00 42 1012.6
20220812224706 36 241 11.3 22.5 0.00 0.00 0.00 42 1012.6
20220812224604 36 240 12.9 22.5 0.00 0.00 0.00 41 1012.6
20220812224504 36 242 12.9 25.7 0.00 0.00 0.00 41 1012.7
20220812224404 36 242 12.9 25.7 0.00 0.00 0.00 41 1012.7
20220812224304 36 238 12.9 25.7 0.00 0.00 0.00 41 1012.7
20220812224204 36 237 12.9 25.7 0.00 0.00 0.00 41 1012.7
20220812224106 36 235 12.9 25.7 0.00 0.00 0.00 41 1012.7
20220812224004 36 233 12.9 25.7 0.00 0.00 0.00 41 1012.7
20220812223904 36 234 11.3 25.7 0.00 0.00 0.00 41 1012.7
20220812223825 36 233 11.3 25.7 0.00 0.00 0.00 41 1012.7
20220812223725 36 231 11.3 25.7 0.00 0.00 0.00 41 1012.6
20220812223604 36 230 9.7 25.7 0.00 0.00 0.00 41 1012.6
20220812223504 36 229 9.7 20.9 0.00 0.00 0.00 41 1012.5
20220812223446 36 230 9.7 20.9 0.00 0.00 0.00 41 1012.5
20220812223348 36 226 9.7 20.9 0.00 0.00 0.00 40 1012.6
20220812223204 36 225 9.7 20.9 0.00 0.00 0.00 40 1012.7
20220812223106 36 226 9.7 20.9 0.00 0.00 0.00 40 1012.7
20220812223004 36 226 9.7 19.3 0.00 0.00 0.00 40 1012.7
20220812222904 36 224 9.7 19.3 0.00 0.00 0.00 40 1012.7
20220812222804 36 225 9.7 19.3 0.00 0.00 0.00 40 1012.7
20220812222704 36 226 9.7 19.3 0.00 0.00 0.00 40 1012.8
20220812222604 36 222 9.7 16.1 0.00 0.00 0.00 40 1012.8
20220812222504 36 219 9.7 17.7 0.00 0.00 0.00 40 1012.8
20220812222404 36 219 9.7 20.9 0.00 0.00 0.00 40 1012.8
20220812222305 36 220 9.7 20.9 0.00 0.00 0.00 40 1012.8
20220812222225 36 220 9.7 20.9 0.00 0.00 0.00 40 1012.8
20220812222127 36 219 9.7 20.9 0.00 0.00 0.00 40 1012.8
20220812222025 36 219 9.7 20.9 0.00 0.00 0.00 40 1012.8
20220812221927 36 220 9.7 20.9 0.00 0.00 0.00 40 1012.8
20220812221704 36 223 11.3 20.9 0.00 0.00 0.00 40 1012.8
20220812221646 36 223 11.3 20.9 0.00 0.00 0.00 40 1012.8
20220812221546 36 224 11.3 20.9 0.00 0.00 0.00 40 1012.7
20220812221425 36 226 11.3 20.9 0.00 0.00 0.00 40 1012.7
20220812221325 36 226 11.3 20.9 0.00 0.00 0.00 40 1012.8
20220812221247 36 226 11.3 20.9 0.00 0.00 0.00 40 1012.8
20220812221148 36 230 9.7 20.9 0.00 0.00 0.00 40 1012.7
20220812221004 36 233 9.7 20.9 0.00 0.00 0.00 40 1012.7
20220812220925 36 234 8.0 20.9 0.00 0.00 0.00 40 1012.7
20220812220825 36 228 8.0 20.9 0.00 0.00 0.00 40 1012.7
20220812220727 36 233 8.0 19.3 0.00 0.00 0.00 40 1012.7
20220812192126 35 224 12.9 22.5 0.00 0.00 0.00 43 1014.5
20220812192025 35 225 12.9 22.5 0.00 0.00 0.00 42 1014.5
20220812191904 35 226 12.9 22.5 0.00 0.00 0.00 42 1014.6
20220812191804 35 227 12.9 25.7 0.00 0.00 0.00 42 1014.5
20220812191725 35 227 12.9 25.7 0.00 0.00 0.00 42 1014.5
20220812191625 35 227 12.9 25.7 0.00 0.00 0.00 42 1014.5
20220812191504 35 224 12.9 25.7 0.00 0.00 0.00 41 1014.5
20220812191404 36 221 12.9 25.7 0.00 0.00 0.00 41 1014.5
20220812191304 36 216 11.3 25.7 0.00 0.00 0.00 40 1014.6
20220812191205 36 213 11.3 25.7 0.00 0.00 0.00 41 1014.5
20220812191125 36 211 11.3 25.7 0.00 0.00 0.00 41 1014.5
20220812191025 36 208 9.7 25.7 0.00 0.00 0.00 41 1014.5
20220812190904 36 206 9.7 25.7 0.00 0.00 0.00 41 1014.6
20220812190804 36 204 9.7 20.9 0.00 0.00 0.00 41 1014.6
20220812190726 36 204 8.0 20.9 0.00 0.00 0.00 42 1014.6
20220812190625 36 201 9.7 17.7 0.00 0.00 0.00 42 1014.6
20220812190504 36 210 9.7 17.7 0.00 0.00 0.00 41 1014.6
20220812190404 36 215 9.7 17.7 0.00 0.00 0.00 41 1014.6
20220812190304 36 220 9.7 17.7 0.00 0.00 0.00 40 1014.7
20220812190205 36 224 9.7 20.9 0.00 0.00 0.00 41 1014.7
20220812190104 36 225 9.7 20.9 0.00 0.00 0.00 42 1014.7
20220812190004 36 227 9.7 20.9 0.00 0.00 0.00 42 1014.7
20220812185925 36 226 9.7 20.9 0.00 0.00 0.00 43 1014.7
20220812185825 36 227 9.7 25.7 0.00 0.00 0.00 43 1014.7
20220812185725 35 228 9.7 25.7 0.00 0.00 0.00 44 1014.8
20220812185625 35 228 8.0 25.7 0.00 0.00 0.00 43 1014.8
20220812185504 35 225 8.0 25.7 0.00 0.00 0.00 44 1014.8
20220812185404 35 223 8.0 25.7 0.00 0.00 0.00 44 1014.8
20220812185304 35 222 8.0 25.7 0.00 0.00 0.00 44 1014.8
20220812185206 35 222 8.0 25.7 0.00 0.00 0.00 43 1014.8
20220812185125 35 224 8.0 25.7 0.00 0.00 0.00 43 1014.9
20220812185026 35 223 8.0 25.7 0.00 0.00 0.00 44 1015.0
20220812184904 35 223 8.0 25.7 0.00 0.00 0.00 44 1015.0
20220812184804 35 217 8.0 19.3 0.00 0.00 0.00 44 1014.8
20220812184725 35 215 8.0 19.3 0.00 0.00 0.00 44 1014.8
20220812184627 35 213 8.0 19.3 0.00 0.00 0.00 45 1014.8
20220812184525 35 213 8.0 19.3 0.00 0.00 0.00 44 1014.9
20220812184425 35 215 8.0 19.3 0.00 0.00 0.00 44 1014.9
20220812184325 35 216 8.0 19.3 0.00 0.00 0.00 45 1015.0
20220812184225 35 218 8.0 19.3 0.00 0.00 0.00 44 1015.1
20220812184125 35 218 9.7 20.9 0.00 0.00 0.00 44 1015.1
20220812184025 35 219 9.7 20.9 0.00 0.00 0.00 44 1015.1
20220812183904 35 223 9.7 20.9 0.00 0.00 0.00 44 1015.2
20220812183804 35 226 9.7 20.9 0.00 0.00 0.00 44 1015.1
20220812183725 35 231 9.7 20.9 0.00 0.00 0.00 45 1015.2
20220812183627 35 233 9.7 20.9 0.00 0.00 0.00 45 1015.2
20220812183504 35 233 9.7 20.9 0.00 0.00 0.00 45 1015.1
20220812183404 35 232 9.7 20.9 0.00 0.00 0.00 46 1015.1
20220812183325 35 233 9.7 20.9 0.00 0.00 0.00 46 1015.1
20220812183225 35 229 9.7 20.9 0.00 0.00 0.00 45 1015.2
20220812183125 35 226 8.0 17.7 0.00 0.00 0.00 45 1015.1
20220812183025 35 220 8.0 17.7 0.00 0.00 0.00 46 1015.2
20220812182925 35 217 8.0 19.3 0.00 0.00 0.00 45 1015.2
20220812182826 35 213 8.0 22.5 0.00 0.00 0.00 45 1015.2
20220812182725 35 211 8.0 22.5 0.00 0.00 0.00 46 1015.2
20220812182627 35 208 8.0 22.5 0.00 0.00 0.00 46 1015.3
20220812182504 35 208 8.0 22.5 0.00 0.00 0.00 46 1015.2
20220812182406 35 209 9.7 22.5 0.00 0.00 0.00 46 1015.2
20220812182347 35 208 9.7 22.5 0.00 0.00 0.00 46 1015.2
20220812182246 35 209 9.7 22.5 0.00 0.00 0.00 46 1015.3
20220812182146 35 210 9.7 22.5 0.00 0.00 0.00 45 1015.4
20220812182046 35 212 9.7 22.5 0.00 0.00 0.00 45 1015.4
20220812181904 35 214 8.0 22.5 0.00 0.00 0.00 46 1015.4
20220812181805 35 216 8.0 19.3 0.00 0.00 0.00 45 1015.4
20220812181725 35 218 8.0 19.3 0.00 0.00 0.00 44 1015.3
20220812181625 35 220 8.0 19.3 0.00 0.00 0.00 44 1015.4
20220812181525 35 220 8.0 19.3 0.00 0.00 0.00 46 1015.4
20220812181425 35 220 8.0 19.3 0.00 0.00 0.00 46 1015.4
20220812181304 35 223 8.0 19.3 0.00 0.00 0.00 47 1015.3
20220812181204 35 224 8.0 16.1 0.00 0.00 0.00 47 1015.4
20220812181125 35 224 9.7 16.1 0.00 0.00 0.00 47 1015.4
20220812181025 35 226 9.7 16.1 0.00 0.00 0.00 47 1015.4
20220812180925 35 226 9.7 16.1 0.00 0.00 0.00 47 1015.4
20220812180827 35 228 9.7 16.1 0.00 0.00 0.00 47 1015.5
20220812180704 35 230 8.0 16.1 0.00 0.00 0.00 46 1015.5
20220812180604 35 232 9.7 16.1 0.00 0.00 0.00 47 1015.4
20220812180525 35 236 8.0 16.1 0.00 0.00 0.00 47 1015.5
20220812180425 34 239 8.0 16.1 0.00 0.00 0.00 48 1015.4
20220812180325 34 236 8.0 16.1 0.00 0.00 0.00 48 1015.4
20220812180225 34 232 8.0 16.1 0.00 0.00 0.00 49 1015.5
20220812180125 34 230 8.0 14.5 0.00 0.00 0.00 50 1015.4
20220812180004 34 223 8.0 14.5 0.00 0.00 0.00 51 1015.4
20220812175904 34 219 8.0 14.5 0.00 0.00 0.00 51 1015.4
20220812175806 34 215 8.0 17.7 0.00 0.00 0.00 50 1015.4
20220812175704 34 207 8.0 17.7 0.00 0.00 0.00 50 1015.5
20220812175604 34 199 8.0 17.7 0.00 0.00 0.00 50 1015.5
20220812175525 34 194 8.0 17.7 0.00 0.00 0.00 50 1015.5
20220812175446 34 190 8.0 17.7 0.00 0.00 0.00 50 1015.5
20220812175346 34 188 8.0 17.7 0.00 0.00 0.00 49 1015.6
20220812175225 34 189 8.0 17.7 0.00 0.00 0.00 48 1015.6
20220812175127 34 190 8.0 17.7 0.00 0.00 0.00 49 1015.6
20220812175004 34 192 8.0 17.7 0.00 0.00 0.00 49 1015.6
20220812174906 34 196 8.0 17.7 0.00 0.00 0.00 49 1015.6
20220812174804 34 193 6.4 17.7 0.00 0.00 0.00 49 1015.6
20220812174706 34 201 6.4 17.7 0.00 0.00 0.00 49 1015.6
20220812174625 34 206 6.4 17.7 0.00 0.00 0.00 49 1015.6
20220812174525 34 209 6.4 17.7 0.00 0.00 0.00 48 1015.7
20220812174404 34 214 6.4 17.7 0.00 0.00 0.00 49 1015.7
20220812174304 34 207 6.4 17.7 0.00 0.00 0.00 49 1015.6
20220812174225 34 203 6.4 14.5 0.00 0.00 0.00 50 1015.6
20220812174125 34 199 6.4 14.5 0.00 0.00 0.00 50 1015.6
20220812174004 34 192 6.4 14.5 0.00 0.00 0.00 50 1015.7
20220812173906 34 188 6.4 14.5 0.00 0.00 0.00 49 1015.7
20220812173825 34 187 6.4 16.1 0.00 0.00 0.00 49 1015.8
20220812173727 34 182 6.4 19.3 0.00 0.00 0.00 50 1015.7
20220812173604 34 175 6.4 19.3 0.00 0.00 0.00 49 1015.8
20220812173504 34 173 6.4 19.3 0.00 0.00 0.00 49 1015.8
20220812173404 34 173 6.4 19.3 0.00 0.00 0.00 49 1015.8
20220812173306 34 185 6.4 19.3 0.00 0.00 0.00 50 1015.8
20220812173204 34 196 4.8 19.3 0.00 0.00 0.00 50 1015.8
20220812173104 33 202 6.4 19.3 0.00 0.00 0.00 50 1015.8
20220812173004 33 207 6.4 19.3 0.00 0.00 0.00 51 1015.8
20220812172904 33 206 4.8 19.3 0.00 0.00 0.00 52 1015.8
20220812172825 33 207 4.8 19.3 0.00 0.00 0.00 52 1015.8
20220812172727 33 203 6.4 16.1 0.00 0.00 0.00 53 1015.8
20220812172604 33 204 6.4 16.1 0.00 0.00 0.00 53 1015.8
20220812172504 33 200 6.4 16.1 0.00 0.00 0.00 53 1015.8
20220812172425 33 201 8.0 16.1 0.00 0.00 0.00 52 1015.8
20220812172326 33 200 8.0 16.1 0.00 0.00 0.00 52 1015.9
20220812172204 33 201 8.0 16.1 0.00 0.00 0.00 52 1015.9
20220812172106 33 204 8.0 16.1 0.00 0.00 0.00 53 1015.9
20220812172004 33 212 8.0 16.1 0.00 0.00 0.00 53 1015.9
20220812171904 33 218 8.0 16.1 0.00 0.00 0.00 52 1015.9
20220812171804 33 223 8.0 16.1 0.00 0.00 0.00 52 1015.9
20220812171704 33 227 8.0 16.1 0.00 0.00 0.00 51 1015.9
20220812171604 33 228 8.0 12.9 0.00 0.00 0.00 51 1015.9
20220812171504 33 233 8.0 12.9 0.00 0.00 0.00 51 1015.9
20220812171404 33 237 8.0 12.9 0.00 0.00 0.00 51 1015.9
20220812171304 33 239 6.4 12.9 0.00 0.00 0.00 51 1015.9
20220812171225 33 240 6.4 12.9 0.00 0.00 0.00 51 1015.9
20220812171125 33 241 6.4 12.9 0.00 0.00 0.00 51 1015.9
20220812171025 33 237 6.4 12.9 0.00 0.00 0.00 51 1015.9
20220812170925 33 228 6.4 19.3 0.00 0.00 0.00 53 1015.9
20220812170804 33 220 6.4 19.3 0.00 0.00 0.00 52 1015.9
20220812170706 33 217 6.4 19.3 0.00 0.00 0.00 51 1015.9
20220812170646 33 215 6.4 19.3 0.00 0.00 0.00 52 1015.9
20220812170546 33 210 6.4 19.3 0.00 0.00 0.00 52 1015.9
20220812170404 33 195 8.0 19.3 0.00 0.00 0.00 52 1016.0
20220812170304 33 195 8.0 19.3 0.00 0.00 0.00 52 1016.0
20220812170246 33 195 8.0 19.3 0.00 0.00 0.00 52 1016.0
20220812170147 33 193 8.0 19.3 0.00 0.00 0.00 53 1016.1
20220812170046 33 189 8.0 19.3 0.00 0.00 0.00 52 1016.1
20220812165946 33 191 8.0 19.3 0.00 0.00 0.00 53 1016.1
20220812165846 33 190 6.4 17.7 0.00 0.00 0.00 53 1016.1
20220812165725 33 192 6.4 17.7 0.00 0.00 0.00 53 1016.1
20220812165627 33 194 6.4 17.7 0.00 0.00 0.00 53 1016.1
20220812165525 33 199 6.4 17.7 0.00 0.00 0.00 53 1016.1
20220812165404 33 206 4.8 17.7 0.00 0.00 0.00 52 1016.2
20220812165305 33 206 4.8 16.1 0.00 0.00 0.00 52 1016.2
20220812165204 33 210 4.8 12.9 0.00 0.00 0.00 53 1016.2
20220812165104 33 211 6.4 16.1 0.00 0.00 0.00 53 1016.2
20220812165004 33 212 6.4 17.7 0.00 0.00 0.00 53 1016.2
20220812164906 33 211 6.4 17.7 0.00 0.00 0.00 53 1016.2
20220812164825 33 211 6.4 17.7 0.00 0.00 0.00 53 1016.2
20220812164704 33 214 8.0 17.7 0.00 0.00 0.00 54 1016.2
20220812164604 33 221 9.7 19.3 0.00 0.00 0.00 54 1016.3
20220812164504 33 224 9.7 19.3 0.00 0.00 0.00 54 1016.3
20220812164405 33 224 9.7 19.3 0.00 0.00 0.00 53 1016.3
20220812164304 33 224 8.0 19.3 0.00 0.00 0.00 53 1016.3
20220812164204 33 225 8.0 19.3 0.00 0.00 0.00 53 1016.4
20220812164125 33 227 8.0 19.3 0.00 0.00 0.00 54 1016.4
20220812164025 33 229 8.0 19.3 0.00 0.00 0.00 54 1016.4
20220812163904 33 225 8.0 19.3 0.00 0.00 0.00 54 1016.4
20220812163804 33 223 8.0 19.3 0.00 0.00 0.00 54 1016.4
20220812163704 32 219 8.0 19.3 0.00 0.00 0.00 54 1016.4
20220812163606 32 212 6.4 14.5 0.00 0.00 0.00 55 1016.4
20220812163525 32 208 6.4 14.5 0.00 0.00 0.00 55 1016.4
20220812163425 32 210 6.4 14.5 0.00 0.00 0.00 54 1016.3
20220812163304 32 211 6.4 14.5 0.00 0.00 0.00 54 1016.4
20220812163204 32 211 6.4 14.5 0.00 0.00 0.00 54 1016.4
20220812163125 32 207 6.4 14.5 0.00 0.00 0.00 54 1016.4
20220812163025 32 201 6.4 14.5 0.00 0.00 0.00 54 1016.4
20220812162925 32 205 6.4 14.5 0.00 0.00 0.00 54 1016.4
20220812162825 32 212 6.4 14.5 0.00 0.00 0.00 54 1016.5
20220812162746 32 218 6.4 14.5 0.00 0.00 0.00 54 1016.5
20220812162646 32 230 6.4 14.5 0.00 0.00 0.00 55 1016.4
20220812162504 32 236 6.4 14.5 0.00 0.00 0.00 54 1016.4
20220812162404 32 233 6.4 14.5 0.00 0.00 0.00 55 1016.5
20220812162305 32 231 6.4 14.5 0.00 0.00 0.00 55 1016.5
20220812162246 32 230 6.4 14.5 0.00 0.00 0.00 55 1016.5
20220812162146 32 230 6.4 14.5 0.00 0.00 0.00 55 1016.5
20220812162025 32 233 6.4 14.5 0.00 0.00 0.00 55 1016.5
20220812161925 32 234 6.4 14.5 0.00 0.00 0.00 55 1016.4
20220812161825 32 230 6.4 16.1 0.00 0.00 0.00 55 1016.4
20220812161704 32 217 6.4 16.1 0.00 0.00 0.00 55 1016.5
20220812161606 32 213 6.4 22.5 0.00 0.00 0.00 55 1016.5
20220812161546 32 211 6.4 22.5 0.00 0.00 0.00 55 1016.5
20220812161446 32 211 4.8 22.5 0.00 0.00 0.00 54 1016.4
20220812161304 32 217 4.8 22.5 0.00 0.00 0.00 54 1016.5
20220812161225 32 225 4.8 22.5 0.00 0.00 0.00 54 1016.5
20220812161125 32 224 4.8 22.5 0.00 0.00 0.00 55 1016.5
20220812161004 32 224 4.8 22.5 0.00 0.00 0.00 54 1016.5
20220812160904 32 229 4.8 22.5 0.00 0.00 0.00 55 1016.5
20220812160825 32 229 4.8 22.5 0.00 0.00 0.00 56 1016.5
20220812160725 32 229 3.2 22.5 0.00 0.00 0.00 56 1016.5
20220812160627 32 227 4.8 9.7 0.00 0.00 0.00 56 1016.4
20220812160504 32 208 4.8 9.7 0.00 0.00 0.00 56 1016.4
20220812160404 32 198 4.8 9.7 0.00 0.00 0.00 56 1016.4
20220812160304 32 188 3.2 9.7 0.00 0.00 0.00 56 1016.4
20220812160204 32 176 3.2 9.7 0.00 0.00 0.00 57 1016.4
20220812160104 32 167 3.2 9.7 0.00 0.00 0.00 56 1016.4
20220812160004 32 157 3.2 9.7 0.00 0.00 0.00 56 1016.4
20220812155904 32 138 1.6 9.7 0.00 0.00 0.00 56 1016.4
20220812155825 32 137 1.6 9.7 0.00 0.00 0.00 56 1016.4
20220812155725 32 136 1.6 9.7 0.00 0.00 0.00 56 1016.4
20220812155604 32 130 1.6 8.0 0.00 0.00 0.00 58 1016.4
20220812155506 32 132 1.6 6.4 0.00 0.00 0.00 58 1016.4
20220812155404 32 145 1.6 8.0 0.00 0.00 0.00 58 1016.4
20220812155305 32 138 1.6 8.0 0.00 0.00 0.00 58 1016.5
20220812155204 32 135 1.6 8.0 0.00 0.00 0.00 58 1016.5
20220812155106 32 133 1.6 8.0 0.00 0.00 0.00 58 1016.5
20220812155004 32 129 3.2 8.0 0.00 0.00 0.00 57 1016.6
20220812154904 32 126 1.6 8.0 0.00 0.00 0.00 57 1016.6
20220812154804 32 121 3.2 8.0 0.00 0.00 0.00 56 1016.5
20220812154706 32 120 3.2 8.0 0.00 0.00 0.00 56 1016.5
20220812154604 32 115 1.6 8.0 0.00 0.00 0.00 56 1016.4
20220812154505 32 108 1.6 8.0 0.00 0.00 0.00 56 1016.5
20220812154404 32 90 1.6 8.0 0.00 0.00 0.00 57 1016.4
20220812154304 32 83 1.6 6.4 0.00 0.00 0.00 57 1016.5
20220812154225 32 82 1.6 6.4 0.00 0.00 0.00 56 1016.5
20220812154126 32 82 1.6 6.4 0.00 0.00 0.00 56 1016.4
20220812154046 32 81 1.6 6.4 0.00 0.00 0.00 56 1016.5
20220812153925 32 80 0.0 4.8 0.00 0.00 0.00 57 1016.5
20220812153827 32 80 0.0 4.8 0.00 0.00 0.00 56 1016.4
20220812153725 32 79 0.0 4.8 0.00 0.00 0.00 57 1016.5
20220812153625 32 79 0.0 4.8 0.00 0.00 0.00 58 1016.4
20220812153504 32 79 0.0 4.8 0.00 0.00 0.00 58 1016.4
20220812153404 32 78 1.6 4.8 0.00 0.00 0.00 58 1016.5
20220812153304 32 78 1.6 4.8 0.00 0.00 0.00 59 1016.4
20220812153246 32 78 1.6 4.8 0.00 0.00 0.00 59 1016.4
20220812153148 32 78 1.6 4.8 0.00 0.00 0.00 59 1016.5
20220812153004 32 78 1.6 6.4 0.00 0.00 0.00 60 1016.5
20220812152904 32 80 1.6 6.4 0.00 0.00 0.00 60 1016.5
20220812152806 31 82 1.6 6.4 0.00 0.00 0.00 60 1016.5
20220812152725 31 84 1.6 6.4 0.00 0.00 0.00 60 1016.4
20220812152625 31 86 1.6 6.4 0.00 0.00 0.00 59 1016.5
20220812152504 31 87 1.6 6.4 0.00 0.00 0.00 59 1016.5
20220812152404 31 91 1.6 6.4 0.00 0.00 0.00 60 1016.5
20220812152325 31 92 1.6 6.4 0.00 0.00 0.00 60 1016.5
20220812152204 31 94 1.6 6.4 0.00 0.00 0.00 59 1016.5
20220812152104 31 96 1.6 6.4 0.00 0.00 0.00 60 1016.5
20220812152004 31 99 1.6 6.4 0.00 0.00 0.00 59 1016.5
20220812151925 31 100 1.6 6.4 0.00 0.00 0.00 59 1016.6
20220812151827 31 99 1.6 6.4 0.00 0.00 0.00 59 1016.5
20220812151725 31 99 1.6 6.4 0.00 0.00 0.00 60 1016.6
20220812151625 31 98 1.6 6.4 0.00 0.00 0.00 60 1016.6
20220812151504 31 95 1.6 6.4 0.00 0.00 0.00 60 1016.5
20220812151446 31 95 1.6 6.4 0.00 0.00 0.00 60 1016.5
20220812151347 31 94 1.6 6.4 0.00 0.00 0.00 60 1016.6
20220812151204 31 91 1.6 6.4 0.00 0.00 0.00 61 1016.6
20220812151127 31 90 1.6 6.4 0.00 0.00 0.00 62 1016.6
20220812151025 31 88 1.6 6.4 0.00 0.00 0.00 61 1016.6
20220812150946 31 86 1.6 6.4 0.00 0.00 0.00 61 1016.6
20220812150847 31 83 1.6 6.4 0.00 0.00 0.00 61 1016.6
20220812150746 31 82 1.6 6.4 0.00 0.00 0.00 62 1016.6
20220812150646 31 82 1.6 6.4 0.00 0.00 0.00 62 1016.6
20220812150504 31 81 1.6 4.8 0.00 0.00 0.00 64 1016.6
20220812150404 31 81 1.6 4.8 0.00 0.00 0.00 65 1016.6
20220812150304 31 81 1.6 4.8 0.00 0.00 0.00 65 1016.6
20220812150204 31 81 1.6 4.8 0.00 0.00 0.00 64 1016.6
20220812150104 31 81 1.6 4.8 0.00 0.00 0.00 64 1016.6
20220812150004 31 81 1.6 4.8 0.00 0.00 0.00 64 1016.6
20220812145925 31 81 0.0 4.8 0.00 0.00 0.00 64 1016.6
20220812145827 31 81 0.0 4.8 0.00 0.00 0.00 64 1016.6
20220812145704 31 80 1.6 4.8 0.00 0.00 0.00 65 1016.6
20220812145606 31 80 0.0 4.8 0.00 0.00 0.00 65 1016.6
20220812145504 30 80 0.0 4.8 0.00 0.00 0.00 66 1016.6
20220812145404 30 80 1.6 4.8 0.00 0.00 0.00 66 1016.6
20220812145305 30 80 1.6 4.8 0.00 0.00 0.00 67 1016.7
20220812145225 30 80 1.6 4.8 0.00 0.00 0.00 67 1016.7
20220812145125 30 80 1.6 4.8 0.00 0.00 0.00 67 1016.7
20220812145004 30 80 1.6 4.8 0.00 0.00 0.00 68 1016.7
20220812144904 30 80 1.6 4.8 0.00 0.00 0.00 68 1016.6
20220812144804 30 79 1.6 4.8 0.00 0.00 0.00 68 1016.6
20220812144704 30 79 1.6 4.8 0.00 0.00 0.00 68 1016.6
20220812144606 30 79 1.6 4.8 0.00 0.00 0.00 68 1016.6
20220812144504 30 79 1.6 4.8 0.00 0.00 0.00 68 1016.5
20220812144446 30 79 1.6 4.8 0.00 0.00 0.00 68 1016.6
20220812144346 30 78 1.6 4.8 0.00 0.00 0.00 69 1016.6
20220812144204 30 78 1.6 4.8 0.00 0.00 0.00 68 1016.5
20220812144104 30 78 1.6 4.8 0.00 0.00 0.00 68 1016.5
20220812144004 30 77 1.6 6.4 0.00 0.00 0.00 69 1016.5
20220812143946 30 77 1.6 6.4 0.00 0.00 0.00 69 1016.5
20220812143846 29 76 1.6 8.0 0.00 0.00 0.00 70 1016.5